     2              Observation         GPS                 RINEX VERSION / TYPE
ASHTORIN USGS 24 - NOV - 92 14:24                           PGM / RUN BY / DATE
                                                            COMMENT
Original Marker Name: rmr2 Red_Mt_Rm2_1991_NCER             COMMENT
Campaign Name: USGS-San Jacinto Monit.                      COMMENT
4-Character Station Name: RMR2                              COMMENT
6-Character Antenna Code: ASHL12                            COMMENT
Vertical Measurement Point: BBE                             COMMENT
Vertical Offset to Rinex Ref. Point: 0.0595                 COMMENT
Radial Measurement Point: EGP                               COMMENT
Radial Offset to Rinex Ref. Point: 0.1424                   COMMENT
Antenna Height from Field Measurement: 1.4680 m             COMMENT
Additional Antenna Identification Info.:                    COMMENT
Original Ashtech L1/L2                                      COMMENT
Revised Rinex header created by UCSD GPS archive for        COMMENT
SCEC DC on 22-Sep-1999 (1999.265) 22:50:26 GMT              COMMENT
For assistance contact dagnew@ucsd.edu or hjohnson@ucsd.edu COMMENT
                                                            COMMENT
RMR2 RED_MT_RM2_1991_NCER                                   MARKER NAME
                                                            MARKER NUMBER
KWC US GEOLOGICAL SURVEY                                    OBSERVER / AGENCY
107 ASHTECH L-XII 6M24                                      REC # / TYPE / VERS
031 ASHTECH GEODETIC L                                      ANT # / TYPE
 -2327552.6300 -4703412.6800  3614064.0000                  APPROX POSITION XYZ
        1.4016        0.0000        0.0000                  ANTENNA: DELTA H/E/N
     1     2     0                                          WAVELENGTH FACT L1/2
     4    L1    L2    C1    D1                              # / TYPES OF OBSERV
    30                                                      INTERVAL
  1992    11    19    19    45    0.000000                  TIME OF FIRST OBS
  1992    11    19    21    47    0.000000                  TIME OF LAST OBS
     8                                                      # OF SATELLITES
          11   245   245   245   245                        PRN / # OF OBS
          12   240   240   240   240                        PRN / # OF OBS
          15   116   116   116   116                        PRN / # OF OBS
          17   127   127   127   127                        PRN / # OF OBS
          21   245   245   245   245                        PRN / # OF OBS
          23   240   240   240   240                        PRN / # OF OBS
          25   180   180   180   180                        PRN / # OF OBS
                                                            END OF HEADER
 92 11 19 19 45  0.0000000  0  6 11 12 21 28 23 17                   0.000116380
  11218462.20816   -140197.65411  30420347.110       -2544.261
 -18443903.50615    -81293.09111  31737297.128       -1184.547
 -13947028.75518      8804.14312  28125537.785         380.254
  10821608.45618     13404.24711  28759080.933        1230.694
 -21939037.00617     20856.53511  29350137.033        2228.759
 -12491092.70416    188717.42712  30095171.606        3133.312
 92 11 19 19 45 30.0000000  0  6 11 12 21 28 23 17                   0.000127120
      -178.65817   -199659.09312  22911017.262       -2535.296
        17.17215   -108899.23311  24235744.033       -1172.749
      2480.47118     17743.81511  20632908.044         385.855
     20576.57017     42374.72611  21271341.196        1247.504
     41240.51817     72970.13712  21868053.820        2228.974
       195.55816    262069.49511  22618273.017        3139.542
 92 11 19 19 46  0.0000000  0  6 11 12 21 28 23 17                   0.000137900
    -75960.543 7   -258709.832 4  22896596.055       -2515.640
    -34839.054 5   -136059.915 1  24229111.774       -1150.125
     14275.235 8     26938.025 3  20635152.361         401.526
     58399.092 7     71851.071 1  21278538.083        1275.155
    108254.162 7    125188.545 5  21880806.071        2239.749
     94623.590 6    335648.318 1  22636241.857        3156.766
 92 11 19 19 46 30.0000000  0  6 11 12 21 28 23 17                   0.000148880
   -151072.723 7   -317238.753 5  22882302.732       -2491.255
    -68938.966 5   -162631.135 1  24222622.648       -1122.867
     26605.361 8     36545.999 5  20637498.367         420.884
     97131.001 7    102024.394 1  21285908.882        1307.413
    175675.930 7    177724.960 5  21893635.983        2255.467
    189643.290 6    409689.519 3  22654323.849        3178.456
 92 11 19 19 47  0.0000000  0  6 11 12 21 28 23 17                   0.000160100
   -225421.111 7   -375172.449 5  22868154.017       -2465.040
   -102188.558 5   -188539.777 2  24216294.880       -1093.749
     39546.678 8     46630.147 6  20639961.133         442.009
    136851.435 7    132957.401 1  21293467.890        1340.652
    243596.148 7    230649.800 6  21906561.111        2272.733
    285349.582 6    484265.674 5  22672537.151        3202.133
 92 11 19 19 47 30.0000000  0  6 11 12 21 28 23 17                   0.000171580
   -298977.666 7   -432489.154 5  22854156.358       -2438.606
   -134560.071 5   -213764.277 2  24210135.002       -1064.418
     53121.075 8     57207.599 7  20642544.163         462.839
    177571.952 7    164684.900 1  21301216.824        1374.267
    312043.890 7    283985.661 6  21919586.664        2290.484
    381773.117 6    559400.832 5  22690885.989        3225.985
 92 11 19 19 48  0.0000000  0  6 11 12 21 28 23 17                   0.000183330
   -371744.895 7   -489190.797 5  22840309.283       -2412.573
   -166056.302 5   -238306.340 2  24204141.423       -1035.555
     67312.774 8     68266.077 7  20645244.864         483.223
    219304.282 7    197216.685 3  21309158.485        1407.675
    381021.263 7    337734.251 6  21932712.789        2307.885
    478897.440 6    635081.983 5  22709368.360        3248.887
 92 11 19 19 48 30.0000000  0  6 11 12 21 28 23 17                   0.000195330
   -443743.465 7   -545293.510 5  22826608.538       -2387.476
   -196698.225 5   -262183.125 2  24198310.556       -1007.564
     82097.538 8     79786.678 7  20648058.466         502.271
    262019.538 7    230501.274 5  21317286.871        1439.966
    450501.375 7    391874.556 6  21945934.455        2323.869
    576684.681 6    711279.724 5  22727976.767        3270.018
 92 11 19 19 49  0.0000000  0  6 11 12 21 28 23 17                   0.000207570
   -515001.860 7   -600819.450 5  22813048.745       -2363.229
   -226514.840 5   -285416.822 2  24192636.489        -980.534
     97444.529 8     91745.396 8  20650978.935         520.562
    305697.758 8    264536.273 5  21325598.495        1471.782
    520439.374 7    446371.682 6  21959243.142        2338.549
    675087.613 6    787957.227 5  22746702.377        3289.922
 92 11 19 19 49 30.0000000  0  6 11 12 21 28 23 17                   0.000220030
   -585550.471 7   -655792.273 5  22799623.890       -2340.041
   -255536.712 5   -308031.262 3  24187112.728        -954.431
    113317.144 8    104113.694 8  20653999.623         537.481
    350319.216 7    299306.238 6  21334089.796        1502.917
    590803.839 7    501201.088 6  21972633.252        2352.227
    774066.215 6    865083.280 5  22765537.876        3308.495
 92 11 19 19 50  0.0000000  0  6 11 12 21 28 23 17                   0.000232700
   -655419.868 7   -710235.910 5  22786328.262       -2318.050
   -283794.729 5   -330050.339 3  24181737.339        -929.687
    129684.481 8    116867.495 8  20657114.116         553.521
    395848.636 7    334783.697 6  21342753.808        1532.101
    661549.438 7    556327.499 6  21986095.811        2363.964
    873587.400 6    942632.171 5  22784476.496        3326.130
 92 11 19 19 50 30.0000000  0  6 11 12 21 28 23 17                   0.000245540
   -724641.157 7   -764174.486 5  22773156.572       -2296.784
   -311320.448 5   -351498.855 3  24176500.019        -905.673
    146518.514 8    129984.950 8  20660317.759         568.641
    442237.063 7    370930.509 6  21351581.029        1560.361
    732630.476 7    611715.273 6  21999621.697        2374.770
    973624.846 6   1020583.273 5  22803513.145        3342.912
 92 11 19 19 51  0.0000000  0  6 11 12 21 28 23 17                   0.000258530
   -793236.007 7   -817624.961 5  22760102.917       -2276.264
   -338135.900 5   -372393.785 3  24171397.473        -882.330
    163801.252 8    143452.049 8  20663606.434         583.423
    489457.586 8    407725.715 6  21360566.876        1587.512
    804027.497 7    667349.279 6  22013208.162        2385.013
   1074162.125 6   1098923.906 5  22822644.646        3359.558
 92 11 19 19 51 30.0000000  0  6 11 12 21 28 23 17                   0.000271650
   -861221.158 7   -870600.338 5  22747165.944       -2256.213
   -364258.269 5   -392748.720 3  24166425.332        -859.485
    181519.250 8    157258.302 8  20666978.007         597.639
    537482.461 7    445147.692 6  21369705.821        1614.010
    875729.323 7    723220.789 6  22026852.308        2394.885
   1175190.700 6   1177647.354 5  22841869.432        3375.589
 92 11 19 19 52  0.0000000  0  6 11 12 21 28 23 17                   0.000284900
   -928615.529 7   -923115.363 5  22734341.434       -2236.795
   -389707.015 5   -412578.698 3  24161582.644        -837.401
    199652.094 8    171387.823 8  20670428.839         610.971
    586287.437 7    483177.522 6  21378993.001        1639.606
    947716.145 7    779314.383 6  22040551.173        2404.217
   1276682.718 6   1256731.939 5  22861182.363        3390.386
 92 11 19 19 52 30.0000000  0  6 11 12 21 28 23 17                   0.000298240
   -995443.027 7   -975188.635 5  22721624.369       -2218.242
   -414506.251 5   -431902.519 4  24156863.813        -816.035
    218164.020 8    185812.735 8  20673951.372         623.212
    635849.860 7    521797.573 6  21388424.323        1664.671
   1019974.382 7    835619.432 6  22054301.696        2413.035
   1378595.792 6   1336144.610 5  22880575.699        3403.926
 92 11 19 19 53  0.0000000  0  6 11 12 21 28 23 17                   0.000311680
  -1061718.242 7  -1026831.601 5  22709012.706       -2200.025
   -438671.176 5   -450732.093 3  24152264.986        -795.121
    237039.495 8    200520.919 8  20677543.506         635.043
    686159.993 7    561000.248 6  21397998.313        1689.424
   1092487.272 7    892122.934 6  22068100.480        2421.106
   1480911.208 6   1415870.776 5  22900044.541        3416.904
 92 11 19 19 53 30.0000000  0  6 11 12 21 28 23 17                   0.000325200
  -1127453.419 7  -1078053.739 5  22696503.806       -2182.226
   -462214.391 5   -469077.150 4  24147783.720        -774.580
    256256.370 8    215495.135 8  20681200.274         646.063
    737210.122 7    600779.555 6  21407712.948        1713.759
   1165237.104 7    948811.079 6  22081944.539        2428.788
   1583602.012 6   1495889.489 5  22919586.363        3429.051
 92 11 19 19 54  0.0000000  0  6 11 12 21 28 23 17                   0.000338790
  -1192659.430 7  -1128863.558 5  22684095.517       -2164.883
   -485147.597 5   -486947.008 3  24143418.033        -754.502
    275800.841 8    230724.603 8  20684919.518         656.779
    788973.900 7    641114.931 6  21417563.381        1737.051
   1238209.948 7   1005672.974 6  22095830.945        2435.970
   1686653.526 6   1576189.215 5  22939196.446        3440.874
 92 11 19 19 54 30.0000000  0  6 11 12 21 28 23 17                   0.000352450
  -1257345.729 7  -1179268.354 5  22671785.839       -2147.568
   -507480.447 5   -504348.994 4  24139168.340        -734.598
    295666.831 8    246204.631 8  20688699.782         667.618
    841433.476 7    681992.493 7  21427546.059        1760.130
   1311387.453 7   1062694.356 6  22109755.574        2442.347
   1790067.693 6   1656771.608 5  22958876.659        3453.348
 92 11 19 19 55  0.0000000  0  6 11 12 21 28 23 17                   0.000366160
  -1321515.985 7  -1229271.085 5  22659574.354       -2130.384
   -529217.265 5   -521286.583 4  24135031.185        -714.732
    315855.792 8    261936.303 8  20692541.571         678.240
    894582.255 7    723407.103 7  21437660.296        1782.942
   1384751.947 7   1119861.459 6  22123716.760        2448.651
   1893852.008 6   1737642.348 5  22978626.276        3465.454
 92 11 19 19 55 30.0000000  0  6 11 12 21 28 23 17                   0.000379930
  -1385175.401 7  -1278875.745 5  22647460.020       -2113.420
   -550363.939 5   -537764.365 4  24131006.150        -695.114
    336356.226 8    277910.677 8  20696442.501         688.592
    948399.221 7    765342.367 7  21447901.049        1804.795
   1458299.903 7   1177171.485 6  22137712.201        2454.556
   1997993.659 6   1818791.572 5  22998443.807        3477.569
 92 11 19 19 56  0.0000000  0  6 11 12 21 28 23 17                   0.000393740
  -1448329.914 7  -1328086.974 5  22635441.900       -2096.752
   -570926.652 5   -553787.077 5  24127093.202        -675.825
    357160.427 8    294121.768 8  20700401.201         698.382
   1002865.246 7    807783.401 7  21458265.244        1826.382
   1532020.486 7   1234616.064 6  22151741.027        2460.117
   2102499.786 6   1900224.812 5  23018330.909        3489.550
 92 11 19 19 56 30.0000000  0  6 11 12 21 28 23 17                   0.000407600
  -1510982.211 7  -1376906.883 5  22623519.733       -2079.937
   -590908.883 5   -569357.495 5  24123291.029        -656.372
    378253.782 8    310558.173 8  20704414.981         707.959
   1057981.114 7    850730.785 7  21468753.430        1848.034
   1605900.546 7   1292184.864 6  22165800.267        2465.310
   2207361.321 6   1981934.954 5  23038285.819        3501.255
 92 11 19 19 57  0.0000000  0  6 11 12 21 28 23 17                   0.000421500
  -1573132.336 7  -1425335.434 5  22611692.811       -2063.370
   -610311.094 5   -584475.990 5  24119598.721        -637.186
    399634.155 8    327218.219 8  20708483.824         717.367
   1113738.653 7    894178.189 7  21479363.415        1868.971
   1679944.602 7   1349881.461 6  22179889.960        2470.919
   2312564.388 6   2063911.242 5  23058304.430        3512.179
 92 11 19 19 57 30.0000000  0  6 11 12 21 28 23 17                   0.000435430
  -1634785.613 7  -1473376.842 5  22599960.174       -2046.867
   -629139.333 5   -599147.229 5  24116016.392        -618.221
    421291.566 8    344094.142 8  20712605.361         726.349
   1170115.596 7    938108.251 7  21490092.179        1889.412
   1754150.907 7   1407704.503 6  22194011.745        2476.210
   2418096.765 6   2146144.135 5  23078386.626        3523.288
 92 11 19 19 58  0.0000000  0  6 11 12 21 28 23 17                   0.000449390
  -1695946.378 7  -1521034.533 5  22588322.018       -2030.486
   -647398.422 5   -613375.078 4  24112541.922        -599.236
    443216.308 8    361178.351 8  20716777.343         735.243
   1227104.641 7    982515.270 7  21500936.783        1909.851
   1828517.678 7   1465652.579 6  22208163.318        2481.428
   2523950.777 6   2228627.626 5  23098529.972        3533.422
 92 11 19 19 58 30.0000000  0  6 11 12 21 28 23 17                   0.000463380
  -1756616.709 7  -1568310.032 5  22576777.034       -2014.070
   -665090.946 5   -627161.436 4  24109176.007        -580.321
    465409.387 8    378471.685 8  20721000.439         744.369
   1284700.725 7   1027395.312 7  21511897.074        1929.859
   1903033.033 7   1523716.415 6  22222342.993        2486.320
   2630098.797 6   2311340.263 5  23118729.309        3543.105
 92 11 19 19 59  0.0000000  0  6 11 12 21 28 23 17                   0.000477370
  -1816795.405 7  -1615202.452 5  22565325.730       -1997.705
   -682216.458 5   -640505.995 5  24105917.513        -561.506
    487873.447 8    395976.155 8  20725274.931         753.225
   1342894.690 7   1072741.219 7  21522971.017        1949.878
   1977692.607 7   1581892.643 6  22236549.819        2490.934
   2736533.084 6   2394275.938 5  23138983.444        3552.515
 92 11 19 19 59 30.0000000  0  6 11 12 21 28 23 17                   0.000491390
  -1876482.769 7  -1661712.002 5  22553967.893       -1981.363
   -698775.901 5   -653409.395 5  24102765.748        -542.558
    510589.910 8    413677.317 8  20729597.678         761.280
   1401691.376 7   1118556.805 7  21534159.570        1970.016
   2052479.110 7   1640167.776 6  22250781.504        2494.810
   2843246.979 6   2477429.483 5  23159289.479        3561.696
 92 11 19 20  0  0.0000000  0  6 11 12 21 28 23 17                   0.000505440
  -1935680.148 7  -1707839.739 5  22542702.343       -1965.052
   -714771.044 5   -665873.225 4  24099721.021        -523.925
    533551.762 8    431569.669 8  20733967.274         769.584
   1461097.518 7   1164847.277 7  21545464.375        1990.447
   2127372.035 7   1698525.859 6  22265032.549        2498.006
   2950227.289 6   2560790.678 5  23179646.975        3570.472
 92 11 19 20  0 30.0000000  0  6 11 12 21 28 23 17                   0.000519530
  -1994385.406 7  -1753584.049 5  22531530.877       -1948.598
   -730200.750 5   -677896.268 4  24096784.722        -504.949
    556762.527 8    449655.992 8  20738384.416         777.744
   1521118.256 7   1211616.654 7  21556885.911        2010.898
   2202360.629 7   1756958.457 6  22279302.890        2501.375
   3057473.389 6   2644358.893 5  23200055.896        3579.446
 92 11 19 20  1  0.0000000  0  6 11 12 21 28 23 17                   0.000533650
  -2052597.887 7  -1798944.350 5  22520453.675       -1932.063
   -745064.838 5   -689478.611 5  24093956.052        -486.052
    580211.401 8    467927.842 8  20742846.667         785.488
   1581752.927 7   1258864.423 7  21568424.409        2031.554
   2277455.219 7   1815473.658 6  22293592.398        2505.170
   3164991.891 6   2728139.399 5  23220517.012        3588.649
 92 11 19 20  1 30.0000000  0  6 11 12 21 28 23 17                   0.000547820
  -2110315.775 7  -1843919.261 5  22509470.199       -1915.654
   -759362.208 6   -700619.271 4  24091236.290        -467.238
    603887.801 8    486376.991 8  20747351.786         793.020
   1643001.434 7   1306590.495 7  21580079.491        2051.701
   2352670.666 7   1874083.036 6  22307905.857        2509.354
   3272786.832 6   2812135.336 5  23241030.438        3597.773
 92 11 19 20  2  0.0000000  0  6 11 12 21 28 23 17                   0.000562010
  -2167539.197 7  -1888508.849 5  22498580.946       -1899.189
   -773093.676 5   -711319.067 4  24088623.145        -448.317
    627793.757 8    505004.991 8  20751901.127         800.668
   1704851.484 7   1354785.308 7  21591849.120        2071.546
   2428022.870 7   1932798.988 6  22322244.992        2514.257
   3380859.574 6   2896347.752 5  23261596.991        3607.169
 92 11 19 20  2 30.0000000  0  6 11 12 21 28 23 17                   0.000576220
  -2224266.737 7  -1932712.073 6  22487785.961       -1882.720
   -786258.635 5   -721577.360 4  24086118.257        -429.520
    651925.268 8    523808.764 8  20756493.239         808.040
   1767287.039 7   1403436.376 7  21603730.379        2090.650
   2503525.407 7   1991632.067 6  22336612.515        2519.207
   3489215.805 6   2980780.985 5  23282216.134        3616.549
 92 11 19 20  3  0.0000000  0  6 11 12 21 28 23 17                   0.000590440
  -2280500.728 7  -1976530.704 6  22477084.749       -1866.115
   -798860.005 5   -731396.498 4  24083719.275        -410.604
    676271.725 8    542780.014 8  20761125.981         815.225
   1830289.225 7   1452528.951 6  21615719.497        2109.526
   2579170.834 7   2050576.514 6  22351007.788        2523.817
   3597854.030 6   3065434.046 5  23302889.314        3626.066
 92 11 19 20  3 30.0000000  0  6 11 12 21 28 23 17                   0.000604680
  -2336237.790 7  -2019962.102 6  22466478.250       -1849.569
   -810895.334 5   -740774.574 4  24081428.532        -391.808
    700842.816 8    561926.311 8  20765801.854         822.971
   1893852.271 7   1502058.587 6  21627815.345        2128.050
   2654943.233 7   2109619.915 6  22365426.469        2527.683
   3706776.490 6   3150308.564 5  23323616.714        3635.414
 92 11 19 20  4  0.0000000  0  6 11 12 21 28 23 17                   0.000618930
  -2391474.973 7  -2063004.000 6  22455966.188       -1832.903
   -822362.501 6   -749709.919 4  24079247.004        -372.885
    725657.244 8    581262.214 8  20770523.867         831.364
   1957970.114 7   1552020.515 6  21640015.910        2146.417
   2730827.325 7   2168750.318 6  22379867.078        2531.122
   3815983.623 6   3235404.856 5  23344397.914        3644.975
 92 11 19 20  4 30.0000000  0  6 11 12 21 28 23 17                   0.000633190
  -2446206.459 7  -2105651.831 6  22445551.068       -1815.881
   -833256.321 6   -758198.486 4  24077174.066        -353.588
    750727.794 8    600797.682 8  20775294.552         840.057
   2022643.238 7   1602415.161 6  21652322.689        2165.176
   2806812.519 7   2227959.544 6  22394326.811        2534.479
   3925472.925 6   3320721.038 5  23365232.009        3654.178
 92 11 19 20  5  0.0000000  0  6 11 12 21 28 23 17                   0.000647440
  -2500431.029 7  -2147904.649 6  22435232.891       -1798.991
   -843576.455 5   -766240.047 4  24075210.879        -334.482
    776057.217 8    620534.878 8  20780114.914         848.663
   2087883.852 7   1653251.965 6  21664737.694        2184.267
   2882894.617 7   2287244.255 6  22408805.017        2537.722
   4035232.910 6   3406248.165 5  23386117.755        3663.155
 92 11 19 20  5 30.0000000  0  6 11 12 21 28 23 17                   0.000661680
  -2554149.192 7  -2189762.891 6  22425010.768       -1781.867
   -853323.947 6   -773835.384 4  24073355.473        -315.229
    801649.108 8    640476.600 8  20784984.963         857.558
   2153695.541 7   1704533.772 6  21677261.425        2203.453
   2959077.697 7   2346607.663 6  22423301.942        2541.512
   4145254.282 6   3491978.924 5  23407054.764        3671.876
 92 11 19 20  6  0.0000000  0  6 11 12 21 28 23 17                   0.000675930
  -2607351.577 7  -2231219.230 6  22414886.349       -1764.873
   -862490.639 6   -780978.108 4  24071611.031        -296.005
    827496.123 8    660617.117 8  20789903.919         865.519
   2220083.871 7   1756264.926 6  21689894.790        2222.384
   3035383.701 7   2406066.839 6  22437822.179        2545.543
   4255539.965 6   3577915.737 5  23428041.054        3680.469
 92 11 19 20  6 30.0000000  0  6 11 12 21 28 23 17                   0.000690180
  -2660043.243 7  -2272277.598 6  22404859.348       -1747.806
   -871082.286 5   -787672.741 5  24069975.334        -276.935
    853570.415 8    680934.740 8  20794865.843         872.843
   2287045.285 7   1808442.646 6  21702637.048        2241.635
   3111807.000 7   2465617.431 6  22452365.581        2549.374
   4366074.598 6   3664046.404 5  23449074.830        3688.687
 92 11 19 20  7  0.0000000  0  6 11 12 21 28 23 17                   0.000704460
  -2712223.624 7  -2312937.536 6  22394930.431       -1730.834
   -879099.127 5   -793919.551 5  24068448.912        -257.701
    879859.444 8    701419.681 8  20799868.112         879.637
   2354572.993 7   1861061.587 6  21715487.241        2260.158
   3188343.307 7   2525256.081 6  22466929.277        2553.005
   4476865.422 6   3750376.822 5  23470158.588        3697.370
 92 11 19 20  7 30.0000000  0  6 11 12 21 28 23 17                   0.000718770
  -2763892.689 7  -2353199.063 6  22385097.689       -1713.838
   -886541.989 5   -799719.078 5  24067032.560        -238.672
    906349.199 8    722061.036 8  20804908.553         886.121
   2422643.462 7   1914103.488 6  21728440.693        2277.796
   3264989.123 7   2584980.039 6  22481514.830        2556.593
   4587915.844 6   3836909.380 5  23491291.395        3705.957
 92 11 19 20  8  0.0000000  0  6 11 12 21 28 23 17                   0.000733090
  -2815052.796 7  -2393064.038 6  22375361.931       -1696.810
   -893414.073 5   -805073.801 5  24065724.392        -219.575
    933026.674 8    742848.680 8  20809985.237         892.576
   2491243.468 7   1967558.026 6  21741494.757        2295.363
   3341731.584 7   2644779.326 6  22496118.310        2559.482
   4699219.081 6   3923639.051 5  23512471.983        3714.133
 92 11 19 20  8 30.0000000  0  6 11 12 21 28 23 17                   0.000747430
  -2865704.907 7  -2432533.140 6  22365723.221       -1679.756
   -899717.348 6   -809985.319 5  24064524.516        -200.561
    959903.988 8    763792.037 8  20815099.527         899.508
   2560363.510 7   2021417.776 6  21754647.692        2312.797
   3418557.296 7   2704643.475 6  22510737.860        2562.419
   4810766.939 6   4010559.268 5  23533699.664        3722.586
 92 11 19 20  9  0.0000000  0  6 11 12 21 28 23 17                   0.000761770
  -2915842.385 7  -2471601.229 5  22356182.519       -1662.598
   -905445.981 6   -814449.079 5  24063435.171        -181.487
    986998.117 8    784904.356 8  20820255.318         906.875
   2630005.780 7   2075684.431 6  21767899.716        2330.206
   3495481.361 7   2764584.223 6  22525376.238        2565.825
   4922567.889 6   4097676.746 5  23554974.387        3730.769
 92 11 19 20  9 30.0000000  0  6 11 12 21 28 23 17                   0.000776100
  -2965465.430 7  -2510268.463 5  22346739.484       -1645.548
   -910600.981 5   -818465.868 5  24062454.270        -162.409
   1014319.809 8    806193.984 8  20825454.538         914.622
   2700175.715 7   2130362.282 6  21781253.114        2347.912
   3572501.907 7   2824600.197 6  22540032.422        2568.832
   5034610.640 6   4184982.550 5  23576296.741        3738.621
 92 11 19 20 10  0.0000000  0  6 11 12 21 28 23 17                   0.000790420
  -3014574.584 7  -2548535.239 5  22337394.022       -1628.355
   -915184.003 6   -822036.978 4  24061582.521        -143.267
   1041877.206 8    827667.290 8  20830698.337         922.617
   2770885.035 7   2185460.421 6  21794708.797        2366.024
   3649606.504 7   2884681.637 6  22554704.864        2571.488
   5146888.099 6   4272471.317 5  23597662.181        3746.458
 92 11 19 20 10 30.0000000  0  6 11 12 21 28 23 17                   0.000804720
  -3063162.454 7  -2586395.857 5  22328147.707       -1610.789
   -919188.571 5   -825157.281 4  24060820.444        -123.806
   1069678.476 8    849330.626 8  20835988.695         930.668
   2842151.271 7   2240992.532 6  21808270.471        2385.018
   3726801.400 7   2944833.452 6  22569394.481        2574.656
   5259407.232 6   4360148.375 5  23619073.857        3754.753
 92 11 19 20 11  0.0000000  0  6 11 12 21 28 23 17                   0.000819010
  -3111225.584 7  -2623847.596 5  22319001.435       -1593.360
   -922612.046 5   -827824.797 4  24060167.824        -104.610
   1097711.127 8    871174.260 8  20841323.462         938.135
   2913980.771 7   2296963.539 6  21821938.915        2403.541
   3804079.283 7   3005049.927 6  22584100.233        2577.016
   5372161.139 6   4448008.340 5  23640529.462        3762.218
 92 11 19 20 11 30.0000000  0  6 11 12 21 28 23 17                   0.000833310
  -3158763.773 7  -2660890.278 5  22309955.577       -1575.822
   -925455.264 5   -830040.242 4  24059626.159         -85.124
   1125959.383 8    893185.900 8  20846698.970         944.958
   2986363.624 7   2353365.724 6  21835713.121        2421.829
   3881417.911 7   3065313.743 6  22598817.318        2578.898
   5485142.855 6   4536045.866 5  23662028.719        3769.797
 92 11 19 20 12  0.0000000  0  6 11 12 21 28 23 17                   0.000847650
  -3205771.695 7  -2697519.750 5  22301010.541       -1558.056
   -927714.036 6   -831800.237 4  24059197.381         -65.624
   1154408.835 8    915354.317 8  20852112.811         951.586
   3059282.215 7   2410185.374 6  21849588.555        2439.263
   3958817.055 7   3125624.675 6  22613546.136        2580.981
   5598348.360 6   4624257.806 5  23683572.132        3777.209
 92 11 19 20 12 30.0000000  0  6 11 12 21 28 23 17                   0.000862000
  -3252246.763 7  -2733734.021 5  22292166.703       -1540.302
   -929386.556 6   -833103.420 5  24058880.183         -46.060
   1183053.546 8    937674.880 8  20857563.561         957.957
   3132713.931 7   2467404.838 6  21863562.111        2455.973
   4036283.825 7   3185988.347 6  22628288.151        2583.372
   5711772.503 5   4712640.001 5  23705155.826        3784.296
 92 11 19 20 13  0.0000000  0  6 11 12 21 28 23 17                   0.000876360
  -3298186.303 7  -2769531.009 5  22283424.806       -1522.308
   -930471.348 6   -833948.573 5  24058673.928         -26.475
   1211890.212 8    960145.020 8  20863051.000         964.639
   3206631.251 7   2525002.726 6  21877628.114        2471.862
   4113823.082 7   3246408.472 6  22643042.659        2586.048
   5825405.963 6   4801185.345 5  23726779.473        3791.455
 92 11 19 20 13 30.0000000  0  6 11 12 21 28 23 17                   0.000890720
  -3343585.895 7  -2804907.230 5  22274785.108       -1504.319
   -930964.951 6   -834333.113 5  24058579.714          -6.700
   1240931.015 8    982774.218 8  20868577.694         971.379
   3281027.136 7   2582973.509 6  21891785.423        2487.733
   4191447.199 7   3306894.737 5  22657814.330        2589.041
   5939263.226 6   4889905.074 5  23748447.124        3798.910
 92 11 19 20 14  0.0000000  0  6 11 12 21 28 23 17                   0.000905090
  -3388443.014 7  -2839860.778 5  22266249.096       -1486.190
   -930865.807 6   -834255.770 5  24058598.697          13.067
   1270179.687 8   1005565.416 8  20874143.471         978.451
   3355897.673 7   2641314.161 6  21906033.189        2503.712
   4269173.594 7   3367460.694 6  22672605.071        2592.740
   6053341.712 6   4978797.156 5  23770155.997        3806.331
 92 11 19 20 14 30.0000000  0  6 11 12 21 28 23 17                   0.000919450
  -3432758.166 7  -2874391.990 6  22257816.194       -1468.127
   -930175.264 6   -833717.698 5  24058730.082          32.821
   1299635.735 8   1028518.172 8  20879748.691         985.341
   3431257.629 7   2700036.169 6  21920373.771        2520.305
   4347011.596 7   3428113.608 6  22687417.626        2596.550
   6167639.277 5   5067860.006 5  23791906.854        3813.418
 92 11 19 20 15  0.0000000  0  6 11 12 21 28 23 17                   0.000933810
  -3476531.379 7  -2908500.905 6  22249486.473       -1449.946
   -928894.611 6   -832719.723 5  24058974.048          52.508
   1329300.695 8   1051633.746 8  20885393.393         992.457
   3507112.620 7   2759143.897 6  21934808.498        2536.929
   4424967.195 6   3488858.178 6  22702252.749        2600.520
   6282154.463 5   5157092.430 5  23813697.152        3821.069
 92 11 19 20 15 30.0000000  0  6 11 12 21 28 23 17                   0.000948160
  -3519755.280 7  -2942181.820 6  22241261.015       -1431.631
   -927017.390 6   -831256.941 5  24059330.990          72.383
   1359177.397 8   1074914.294 8  20891078.728         999.090
   3583473.496 7   2818645.848 6  21949339.718        2553.679
   4503042.114 6   3549695.711 5  22717109.400        2604.500
   6396902.678 5   5246506.404 5  23835531.721        3828.667
 92 11 19 20 16  0.0000000  0  6 11 12 21 28 23 17                   0.000962520
  -3562429.045 7  -2975434.033 6  22233140.117       -1413.167
   -924543.842 6   -829329.427 5  24059801.561          92.424
   1389250.427 8   1098347.827 8  20896801.545        1005.935
   3660330.954 7   2878534.725 6  21963965.263        2570.256
   4581235.000 6   3610625.160 5  22731989.443        2608.368
   6511874.270 5   5336094.423 5  23857409.331        3836.171
 92 11 19 20 16 30.0000000  0  6 11 12 21 28 23 17                   0.000976890
  -3604547.908 7  -3008253.884 6  22225125.155       -1394.658
   -921470.405 6   -826934.438 5  24060386.631         112.408
   1419535.667 8   1121946.703 8  20902564.526        1013.198
   3737682.680 7   2938808.743 6  21978684.853        2586.487
   4659539.050 7   3671641.238 5  22746889.455        2611.948
   6627071.821 5   5425858.570 5  23879331.098        3843.729
 92 11 19 20 17  0.0000000  0  6 11 12 21 28 23 17                   0.000991240
  -3646111.006 7  -3040640.640 6  22217216.160       -1376.120
   -917797.286 6   -824072.223 5  24061085.508         132.505
   1450036.227 8   1145713.366 8  20908368.707        1020.182
   3815508.089 7   2999451.871 6  21993494.541        2602.108
   4737941.377 7   3732733.885 5  22761808.908        2614.709
   6742500.892 5   5515803.092 5  23901298.085        3851.650
 92 11 19 20 17 30.0010000  0  7 25 11 12 21 28 23 17                0.001005670
  -7546586.60315  -2235999.27015  25122864.981       -2529.524
  -3687114.347 7  -3072591.234 6  22209413.444       -1357.367
   -913520.098 6   -820739.267 5  24061899.152         152.494
   1480744.605 8   1169641.955 8  20914212.420        1026.885
   3893813.410 7   3060468.933 6  22008395.984        2618.039
   4816419.303 7   3793885.456 5  22776742.892        2617.028
   6858174.509 5   5605938.157 5  23923310.729        3859.447
 92 11 19 20 18  0.0010000  0  7 25 11 12 21 28 23 17                0.001020020
  -7622519.896 5  -2295167.839 5  25108415.639       -2532.505
  -3727558.751 7  -3104106.306 6  22201717.100       -1338.832
   -908643.741 6   -816939.426 5  24062827.087         172.441
   1511656.234 8   1193728.928 8  20920094.550        1033.927
   3972595.534 7   3121857.564 6  22023387.875        2634.123
   4894960.000 7   3855085.907 5  22791688.923        2618.973
   6974057.187 6   5696236.174 5  23945364.648        3866.101
 92 11 19 20 18 30.0010000  0  7 25 11 12 21 28 23 17                0.001034370
  -7698539.846 5  -2354403.938 5  25093948.863       -2535.428
  -3767443.049 7  -3135184.944 6  22194127.446       -1320.106
   -903166.675 6   -812671.478 5  24063868.900         192.551
   1542777.600 8   1217979.323 8  20926016.400        1040.689
   4051863.953 7   3183625.108 6  22038471.974        2650.441
   4973560.164 6   3916332.731 5  22806646.267        2620.975
   7090142.433 5   5786691.990 5  23967454.990        3873.011
 92 11 19 20 19  0.0010000  0  7 25 11 12 21 28 23 17                0.001048740
  -7774662.257 5  -2413719.942 5  25079462.609       -2539.373
  -3806767.342 7  -3165827.210 6  22186644.097       -1301.503
   -897090.154 6   -807936.430 5  24065025.641         212.363
   1574090.009 8   1242378.565 8  20931975.255        1046.758
   4131622.718 7   3245774.740 6  22053649.237        2666.834
   5052216.275 6   3977623.143 5  22821613.759        2622.766
   7206436.422 5   5877310.484 5  23989584.789        3879.885
 92 11 19 20 19 30.0010000  0  7 25 11 12 21 28 23 17                0.001063110
  -7850900.778 5  -2473126.337 5  25064954.723       -2542.952
  -3845533.853 7  -3196034.822 6  22179266.563       -1282.887
   -890417.574 6   -802736.917 5  24066295.393         232.306
   1605591.975 8   1266925.516 8  20937969.746        1053.355
   4211876.087 7   3308309.788 6  22068921.183        2683.203
   5130932.743 6   4038960.592 5  22836592.799        2625.227
   7322924.076 5   5968079.837 5  24011750.403        3885.832
 92 11 19 20 20  0.0010000  0  7 25 11 12 21 28 23 17                0.001077480
  -7927239.002 5  -2532610.459 5  25050428.168       -2546.249
  -3883741.313 8  -3225806.844 6  22171996.415       -1264.213
   -883148.801 5   -797072.856 5  24067678.037         252.189
   1637300.163 8   1291633.152 8  20944003.509        1060.507
   4292615.034 7   3371223.184 6  22084285.127        2699.230
   5209734.798 6   4100364.679 5  22851588.423        2628.163
   7439594.564 5   6058991.683 5  24033951.245        3892.392
 92 11 19 20 20 30.0010000  0  7 25 11 12 21 28 23 17                0.001091820
  -8003684.321 5  -2592177.942 5  25035881.101       -2549.974
  -3921389.399 8  -3255142.998 6  22164832.476       -1245.523
   -875284.672 6   -790944.925 5  24069174.050         272.050
   1669221.853 8   1316507.151 8  20950078.102        1067.719
   4373825.248 7   3434503.803 6  22099738.708        2714.858
   5288622.416 7   4161835.478 5  22866600.331        2631.112
   7556481.912 5   6150072.549 5  24056193.893        3900.133
 92 11 19 20 21  0.0010000  0  7 25 11 12 21 28 23 17                0.001106130
  -8080234.408 5  -2651826.938 5  25021312.936       -2553.092
  -3958471.302 7  -3284037.941 6  22157775.891       -1226.502
   -866819.702 6   -784348.930 5  24070785.242         292.161
   1701365.812 8   1341554.333 8  20956195.090        1075.259
   4455503.124 7   3498148.828 6  22115281.688        2730.238
   5367600.558 6   4223376.760 5  22881630.037        2634.169
   7673598.168 5   6241331.694 5  24078480.665        3907.548
 92 11 19 20 21 30.0010000  0  7 25 11 12 21 28 23 17                0.001120420
  -8156867.089 5  -2711540.517 5  25006729.042       -2555.828
  -3994982.370 7  -3312488.121 6  22150827.742       -1207.560
   -857750.267 6   -777281.824 5  24072510.858         312.283
   1733735.468 8   1366777.391 8  20962354.854        1082.489
   4537631.506 7   3562144.862 6  22130910.090        2744.981
   5446668.914 6   4284988.348 5  22896675.842        2636.998
   7790927.492 5   6332756.869 5  24100808.297        3914.372
 92 11 19 20 22  0.0010000  0  7 25 11 12 21 28 23 17                0.001134710
  -8233586.924 5  -2771321.964 5  24992129.879       -2559.015
  -4030922.557 8  -3340493.453 6  22143988.895       -1188.453
   -848077.596 6   -769744.680 5  24074351.475         332.351
   1766306.550 8   1392157.412 8  20968553.243        1088.839
   4620198.584 7   3626482.768 6  22146622.280        2759.436
   5525811.753 7   4346657.985 5  22911736.693        2639.035
   7908462.421 5   6424342.315 5  24123174.167        3921.329
 92 11 19 20 22 30.0010000  0  7 25 11 12 21 28 23 17                0.001149010
  -8310406.909 5  -2831181.408 5  24977512.148       -2562.037
  -4066291.164 8  -3368053.377 6  22137258.503       -1169.384
   -837802.101 6   -761737.840 5  24076307.033         352.505
   1799057.099 8   1417677.278 8  20974785.258        1094.515
   4703195.397 7   3691155.539 6  22162416.238        2773.679
   5605009.804 7   4408370.647 5  22926807.712        2640.860
   8026194.510 5   6516081.361 5  24145578.206        3927.125
 92 11 19 20 23  0.0010000  0  7 25 11 12 21 28 23 17                0.001163330
  -8387308.025 5  -2891103.809 5  24962878.517       -2564.596
  -4101085.501 8  -3395165.819 6  22130637.459       -1150.251
   -826922.179 6   -753259.970 5  24078377.866         372.646
   1831972.981 8   1443325.987 8  20981049.122        1099.879
   4786617.520 7   3756159.695 6  22178290.787        2787.713
   5684264.394 6   4470127.348 5  22941889.332        2642.680
   8144084.851 5   6607943.711 5  24168012.953        3932.265
 92 11 19 20 23 30.0010000  0  7 25 11 12 21 28 23 17                0.001177680
  -8464289.029 5  -2951088.649 5  24948229.240       -2567.402
  -4135303.802 8  -3421829.408 6  22124125.795       -1130.921
   -815437.359 6   -744310.701 5  24080563.443         392.803
   1865057.117 8   1469105.800 8  20987344.974        1105.799
   4870468.919 7   3821498.379 6  22194247.152        2802.530
   5763578.052 6   4531930.086 5  22956982.032        2644.804
   8262136.893 5   6699932.048 5  24190477.942        3937.887
 92 11 19 20 24  0.0010000  0  7 25 11 12 21 28 23 17                0.001192040
  -8541358.958 5  -3011142.621 5  24933562.516       -2570.197
  -4168944.855 8  -3448043.189 6  22117723.930       -1111.541
   -803347.942 6   -734890.275 5  24082863.633         413.191
   1898323.176 8   1495027.395 8  20993675.182        1112.363
   4954765.894 7   3887184.240 6  22210288.906        2817.342
   5842954.207 6   4593781.554 5  22972086.964        2647.222
   8380360.312 5   6792053.982 5  24212975.879        3943.896
 92 11 19 20 24 30.0010000  0  7 25 11 12 21 28 23 17                0.001206390
  -8618499.855 5  -3071252.085 5  24918882.279       -2572.374
  -4202000.219 8  -3473800.579 6  22111433.691       -1092.001
   -790646.361 6   -724992.932 5  24085280.665         433.573
   1931804.508 8   1521116.728 8  21000046.281        1119.958
   5039507.452 7   3953216.566 6  22226414.513        2832.311
   5922414.819 6   4655698.785 5  22987208.366        2650.266
   8498766.966 5   6884318.640 5  24235507.550        3949.936
 92 11 19 20 25  0.0010000  0  7 25 11 12 21 28 23 17                0.001220710
  -8695715.765 5  -3131419.780 5  24904188.679       -2575.312
  -4234467.306 8  -3499099.559 6  22105255.541       -1072.315
   -777331.442 6   -714617.603 5  24087815.468         454.087
   1965520.472 8   1547388.904 8  21006462.319        1127.825
   5124704.788 7   4019604.030 6  22242627.101        2847.539
   6001969.497 6   4717689.386 5  23002347.467        2653.433
   8617369.447 5   6976735.897 5  24258076.449        3957.119
 92 11 19 20 25 30.0010000  0  7 25 11 12 21 28 23 17                0.001234980
  -8773029.567 5  -3191664.010 5  24889475.833       -2578.808
  -4266342.613 8  -3523937.444 6  22099189.711       -1052.682
   -763401.019 6   -703762.673 4  24090466.227         474.425
   1999471.738 8   1573844.430 8  21012923.275        1135.427
   5210357.862 7   4086346.610 6  22258926.316        2862.579
   6081623.550 7   4779757.393 5  23017504.732        2656.631
   8736186.685 5   7069320.565 5  24280687.251        3963.887
 92 11 19 20 26  0.0010000  0  7 25 11 12 21 28 23 17                0.001249230
  -8850449.150 6  -3251990.484 5  24874743.531       -2582.477
  -4297624.562 8  -3548312.959 6  22093236.891       -1032.772
   -748854.742 6   -692427.807 5  24093234.690         495.082
   2033641.062 8   1600469.877 8  21019425.515        1142.370
   5296449.152 7   4153430.675 6  22275309.114        2876.642
   6161370.946 6   4841898.116 5  23032680.087        2659.931
   8855211.079 5   7162066.593 5  24303338.272        3970.993
 92 11 19 20 26 30.0010000  0  7 25 11 12 21 28 23 17                0.001263450
  -8927982.846 6  -3312406.029 5  24859990.416       -2586.437
  -4328310.032 8  -3572223.683 6  22087397.513       -1012.846
   -733690.686 6   -680611.543 5  24096120.414         515.717
   2068012.583 8   1627252.884 8  21025966.087        1148.916
   5382959.605 7   4220841.328 6  22291771.159        2890.847
   6241220.845 7   4904118.741 5  23047875.317        2663.329
   8974442.783 5   7254974.133 5  24326026.329        3978.002
 92 11 19 20 27  0.0010000  0  7 25 11 12 21 28 23 17                0.001277660
  -9005637.556 6  -3372915.989 5  24845213.096       -2590.400
  -4358394.015 8  -3595665.725 6  22081672.805        -992.776
   -717905.204 6   -668311.012 5  24099123.872         536.416
   2102563.996 8   1654176.082 8  21032541.065        1154.418
   5469896.137 7   4288583.997 6  22308314.954        2904.777
   6321170.540 6   4966417.105 5  23063089.584        2666.560
   9093893.097 5   7348052.129 4  24348756.708        3985.354
 92 11 19 20 27 30.0010000  0  7 25 11 12 21 28 23 17                0.001291880
  -9083399.429 6  -3433509.607 4  24830414.381       -2593.569
  -4387876.242 8  -3618638.885 6  22076062.459        -972.718
   -701499.301 6   -655527.111 5  24102245.164         557.069
   2137284.124 8   1681230.719 8  21039148.372        1160.182
   5557246.145 7   4356648.874 6  22324937.678        2918.599
   6401210.188 6   5028785.566 5  23078320.361        2669.282
   9213547.420 5   7441288.951 4  24371526.855        3991.570
 92 11 19 20 28  0.0010000  0  7 25 11 12 21 28 23 17                0.001306110
  -9161249.189 6  -3494171.500 5  24815600.300       -2596.225
  -4416755.970 8  -3641142.561 6  22070566.784        -952.555
   -684473.566 6   -642260.180 5  24105484.411         577.853
   2172178.896 8   1708421.480 8  21045788.533        1166.217
   5645013.635 7   4425039.046 6  22341639.654        2932.569
   6481328.733 6   5091215.488 5  23093566.846        2672.014
   9333390.186 5   7534672.635 4  24394333.617        3997.832
 92 11 19 20 28 30.0010000  0  7 25 11 12 21 28 23 17                0.001320360
  -9239165.176 6  -3554884.982 5  24800773.411       -2597.892
  -4445030.629 8  -3663174.744 6  22065185.750        -932.311
   -666826.812 6   -628509.432 5  24108842.244         598.556
   2207259.692 8   1735757.177 8  21052464.083        1172.668
   5733211.331 7   4493764.442 6  22358422.956        2947.391
   6561521.826 6   5153703.518 5  23108827.083        2674.079
   9453412.340 5   7628196.235 4  24417172.635        4003.638
 92 11 19 20 29  0.0010000  0  7 25 11 12 21 28 23 17                0.001334630
  -9317117.265 6  -3615626.419 4  24785939.025       -2598.837
  -4472694.739 8  -3684731.184 6  22059921.774        -911.972
   -648554.764 6   -614271.507 5  24112318.999         619.428
   2242543.973 8   1763251.431 8  21059178.135        1179.773
   5821854.243 7   4562836.770 6  22375290.768        2961.933
   6641766.878 6   5216232.052 5  23124096.551        2675.554
   9573600.471 5   7721849.103 4  24440042.674        4008.643
 92 11 19 20 29 30.0010000  0  7 25 11 12 21 28 23 17                0.001348890
  -9395096.000 6  -3676388.787 5  24771099.515       -2599.719
  -4499748.390 7  -3705811.945 6  22054773.338        -891.582
   -629658.946 6   -599547.459 5  24115915.100         640.244
   2278054.184 8   1790921.732 8  21065935.557        1187.395
   5910926.629 7   4632243.748 6  22392241.284        2976.146
   6722054.734 6   5278793.920 5  23139374.565        2677.032
   9693929.409 6   7815611.674 4  24462939.568        4013.244
 92 11 19 20 30  0.0010000  0  7 25 11 12 21 28 23 17                0.001363140
  -9473106.897 6  -3737176.250 5  24756254.743       -2600.896
  -4526192.421 8  -3726417.644 6  22049741.073        -871.238
   -610141.466 6   -584338.997 5  24119629.000         660.890
   2313783.936 8   1818763.104 8  21072734.768        1194.639
   6000413.592 7   4701973.765 6  22409269.926        2989.620
   6802386.474 6   5341389.994 5  23154661.172        2678.493
   9814396.133 5   7909481.571 4  24485865.560        4017.954
 92 11 19 20 30 30.0010000  0  7 25 11 12 21 28 23 17                0.001377380
  -9551151.204 5  -3797989.749 5  24741403.391       -2601.976
  -4552025.077 8  -3746546.977 6  22044825.455        -850.871
   -590001.948 6   -568645.894 5  24123461.835         681.592
   2349732.438 8   1846774.933 8  21079575.874        1201.965
   6090301.957 7   4772016.562 6  22426375.245        3002.870
   6882769.712 6   5404026.177 5  23169957.631        2680.428
   9935005.504 5   8003462.712 4  24508817.268        4022.728
 92 11 19 20 31  0.0010000  0  7 25 11 12 21 28 23 17                0.001391610
  -9629232.178 5  -3858831.621 5  24726544.381       -2603.409
  -4577239.622 8  -3766194.654 6  22040027.437        -830.059
   -569234.931 6   -552463.900 5  24127414.201         702.751
   2385902.253 8   1874959.210 8  21086458.657        1209.253
   6180581.077 7   4842363.843 6  22443554.980        3015.675
   6963226.974 6   5466720.062 5  23185268.593        2683.618
  10055768.896 5   8097563.799 4  24531797.240        4028.204
 92 11 19 20 31 30.0010000  0  7 25 11 12 21 28 23 17                0.001405830
  -9707356.982 5  -3919707.761 5  24711677.143       -2604.868
  -4601828.870 8  -3785355.085 6  22035348.624        -809.225
   -547834.527 6   -535788.264 5  24131486.591         723.768
   2422283.156 8   1903307.951 8  21093381.747        1215.939
   6271246.745 7   4913012.323 6  22460807.516        3028.777
   7043792.199 6   5529498.041 5  23200599.577        2687.238
  10176704.903 5   8191799.445 4  24554810.619        4034.260
 92 11 19 20 32  0.0010000  0  7 25 11 12 21 28 23 17                0.001420050
  -9785515.575 6  -3980610.311 5  24696803.709       -2605.705
  -4625791.456 8  -3804027.203 6  22030788.863        -788.237
   -525800.760 6   -518619.208 5  24135678.967         744.920
   2458864.360 8   1931812.783 8  21100342.797        1222.719
   6362316.404 7   4983975.587 6  22478137.461        3042.515
   7124468.166 6   5592362.311 5  23215952.239        2691.048
  10297834.441 5   8286185.834 4  24577859.488        4040.996
 92 11 19 20 32 30.0010000  0  7 25 11 12 21 28 23 17                0.001434270
  -9863703.959 6  -4041536.044 4  24681924.590       -2606.860
  -4649126.233 8  -3822210.138 6  22026348.186        -767.414
   -503133.903 6   -500956.743 5  24139991.540         765.949
   2495642.708 8   1960471.233 8  21107341.650        1229.044
   6453790.023 7   5055253.634 6  22495544.400        3055.711
   7205252.457 6   5655311.036 5  23231325.409        2694.301
  10419161.054 5   8380725.833 4  24600947.232        4047.334
 92 11 19 20 33  0.0010000  0  7 25 11 12 21 28 23 17                0.001448500
  -9941926.005 6  -4102488.278 4  24667038.885       -2607.907
  -4671833.790 8  -3839904.323 6  22022027.207        -746.290
   -479835.809 6   -482802.388 5  24144425.304         787.172
   2532610.055 8   1989276.944 8  21114376.241        1235.494
   6545660.531 6   5126840.948 6  22513027.216        3069.116
   7286120.791 6   5718325.208 5  23246713.704        2696.795
  10540685.744 5   8475420.087 4  24624072.901        4054.215
 92 11 19 20 33 30.0010000  0  7 25 11 12 21 28 23 17                0.001462740
 -10020176.948 6  -4163462.859 4  24652149.092       -2608.659
  -4693907.186 8  -3857104.343 6  22017826.687        -725.194
   -455901.057 6   -464152.032 5  24148980.509         808.281
   2569772.552 8   2018234.715 8  21121447.925        1242.040
   6637935.129 6   5198743.126 6  22530585.990        3082.488
   7367049.389 6   5781386.395 5  23262113.156        2698.162
  10662415.982 5   8570274.673 3  24647238.903        4061.003
 92 11 19 20 34  0.0010000  0  7 25 11 12 21 28 23 17                0.001476990
 -10098457.648 6  -4224460.603 5  24637253.392       -2610.087
  -4715346.740 8  -3873810.457 6  22013746.501        -704.033
   -431331.075 6   -445006.562 5  24153656.229         829.495
   2607132.865 8   2047346.627 8  21128557.114        1248.604
   6730601.818 6   5270950.837 6  22548220.330        3095.192
   7448012.807 6   5844474.651 5  23277520.615        2699.346
  10784337.719 5   8665278.334 3  24670440.101        4066.907
 92 11 19 20 34 30.0010000  0  7 25 11 12 21 28 23 17                0.001491240
 -10176795.204 6  -4285502.592 4  24622346.966       -2612.187
  -4736151.480 8  -3890021.933 6  22009787.353        -682.834
   -406126.576 6   -425366.620 5  24158452.760         850.713
   2644687.703 8   2076610.116 8  21135703.417        1255.221
   6823639.753 6   5343447.811 6  22565924.723        3107.580
   7529010.532 6   5907589.637 5  23292934.919        2700.712
  10906428.886 5   8760414.130 3  24693671.783        4072.563
 92 11 19 20 35  0.0010000  0  7 25 11 12 21 28 23 17                0.001505490
 -10255189.480 6  -4346588.932 5  24607428.549       -2613.965
  -4756318.268 8  -3905736.271 6  22005949.789        -661.592
   -380285.676 6   -405230.775 5  24163370.797         871.893
   2682447.942 8   2106033.660 8  21142889.360        1262.195
   6917059.598 6   5416242.433 6  22583702.111        3120.324
   7610063.156 6   5970747.432 5  23308358.730        2703.013
  11028690.943 5   8855683.021 4  24716938.223        4078.155
 92 11 19 20 35 30.0010000  0  7 25 11 12 21 28 23 17                0.001519730
 -10333627.783 6  -4407709.459 5  24592501.389       -2615.037
  -4775844.890 8  -3920951.784 6  22002233.802        -640.147
   -353807.531 6   -384598.403 5  24168409.509         893.177
   2720422.631 8   2135624.296 8  21150115.779        1269.405
   7010860.731 7   5489334.110 6  22601551.740        3133.046
   7691206.674 6   6033976.037 5  23323800.219        2706.700
  11151115.994 5   8951078.919 4  24740234.970        4083.432
 92 11 19 20 36  0.0010000  0  7 25 11 12 21 28 23 17                0.001533950
 -10412098.631 6  -4468855.452 5  24577568.112       -2616.006
  -4794731.519 8  -3935668.619 6  21998640.097        -618.810
   -326693.799 6   -363470.696 5  24173568.704         914.313
   2758613.504 8   2165383.386 8  21157383.330        1276.717
   7105044.831 7   5562724.229 6  22619474.942        3145.990
   7772474.668 6   6097301.674 5  23339263.435        2711.368
  11273696.793 5   9046596.177 4  24763562.377        4088.727
 92 11 19 20 36 30.0010000  0  7 25 11 12 21 28 23 17                0.001548170
 -10490584.785 6  -4530013.253 5  24562632.543       -2616.116
  -4812973.709 8  -3949883.299 6  21995168.570        -597.246
   -298941.323 6   -341845.304 5  24178849.568         935.682
   2797025.933 8   2195315.118 7  21164692.868        1284.191
   7199618.412 7   5636417.841 5  22637472.023        3158.928
   7853892.010 6   6160743.647 5  23354757.389        2716.493
  11396442.173 5   9142241.715 4  24786919.516        4094.428
 92 11 19 20 37  0.0010000  0  7 25 11 12 21 28 23 17                0.001562380
 -10569058.450 6  -4591161.473 5  24547699.422       -2615.346
  -4830568.213 8  -3963593.268 6  21991820.639        -575.566
   -270548.260 6   -319720.746 5  24184253.039         957.099
   2835666.322 8   2225424.480 7  21172046.098        1291.907
   7294579.502 7   5710413.393 5  22655542.605        3171.789
   7935453.190 6   6224297.732 5  23370278.451        2720.834
  11519355.898 5   9238018.375 4  24810309.336        4099.895
 92 11 19 20 37 30.0010000  0  7 25 11 12 21 28 23 17                0.001576570
 -10647514.049 6  -4652295.394 5  24532768.651       -2614.747
  -4847510.681 8  -3976795.158 6  21988596.920        -553.779
   -241511.685 6   -297094.708 5  24189778.106         978.595
   2874535.036 8   2255711.754 7  21179442.697        1299.364
   7389921.192 7   5784705.526 5  22673685.244        3184.430
   8017135.427 6   6287946.093 5  23385822.243        2724.649
  11642432.710 5   9333922.232 3  24833732.413        4105.335
 92 11 19 20 38  0.0010000  0  7 25 11 12 21 28 23 17                0.001590770
 -10725954.236 6  -4713417.127 5  24517840.574       -2614.515
  -4863795.809 8  -3989484.873 6  21985497.877        -531.839
   -211827.843 6   -273964.365 5  24195426.085        1000.137
   2913625.742 8   2286172.005 7  21186881.327        1306.659
   7485642.619 7   5859293.558 5  22691900.273        3196.802
   8098928.212 6   6351680.640 5  23401387.268        2728.049
  11765673.004 5   9429953.319 3  24857185.270        4110.623
 92 11 19 20 38 30.0010000  0  7 25 11 12 21 28 23 17                0.001604960
 -10804397.728 6  -4774541.604 5  24502911.798       -2614.762
  -4879427.833 8  -4001665.633 6  21982522.586        -510.136
   -181502.427 6   -250334.082 5  24201196.282        1021.459
   2952922.663 8   2316792.942 7  21194359.521        1313.283
   7581718.327 7   5934157.668 5  22710183.166        3208.326
   8180804.650 6   6415480.369 5  23416968.243        2730.383
  11889064.941 5   9526102.593 3  24880665.504        4115.677
 92 11 19 20 39  0.0010000  0  7 25 11 12 21 28 23 17                0.001619160
 -10882852.968 6  -4835675.243 5  24487981.425       -2615.343
  -4894407.975 8  -4013338.456 6  21979671.898        -488.482
   -150538.173 6   -226205.963 5  24207088.314        1042.670
   2992420.584 8   2347570.510 7  21201875.097        1319.796
   7678144.712 7   6009295.004 5  22728532.493        3220.057
   8262746.817 6   6479331.294 5  23432559.737        2732.524
  12012607.251 5   9622369.097 3  24904174.647        4120.542
 92 11 19 20 39 30.0010000  0  7 25 11 12 21 28 23 17                0.001633360
 -10961329.920 6  -4896825.702 5  24473047.811       -2616.279
  -4908740.453 8  -4024506.585 6  21976944.707        -466.990
   -118940.686 6   -201584.483 5  24213100.747        1063.771
   3032102.248 8   2378491.246 7  21209426.421        1325.601
   7774912.907 7   6084698.701 5  22746946.917        3231.138
   8344759.084 6   6543236.864 5  23448166.049        2734.901
  12136302.989 5   9718755.123 3  24927712.855        4125.753
 92 11 19 20 40  0.0010000  0  7 25 11 12 21 28 23 17                0.001647570
 -11039833.010 6  -4957996.641 5  24458109.096       -2617.171
  -4922426.049 8  -4035170.702 6  21974340.091        -445.321
    -86712.007 6   -176471.166 5  24219233.242        1084.789
   3071963.868 8   2409552.228 7  21217011.709        1331.888
   7872015.745 7   6160363.154 5  22765424.855        3242.451
   8426838.649 6   6607194.837 5  23463786.327        2736.903
  12260158.461 5   9815265.567 3  24951281.780        4131.390
 92 11 19 20 40 30.0010000  0  7 25 11 12 21 28 23 17                0.001661790
 -11118359.930 6  -5019186.203 5  24443166.377       -2617.631
  -4935462.669 8  -4045329.104 6  21971859.459        -423.654
    -53851.534 6   -150865.716 5  24225486.343        1105.852
   3112015.843 8   2440761.530 7  21224633.522        1338.434
   7969453.741 7   6236288.758 5  22783966.387        3253.626
   8508965.622 6   6671189.785 5  23479414.909        2738.301
  12384186.057 5   9911910.237 3  24974883.517        4137.257
 92 11 19 20 41  0.0010000  0  7 25 11 12 21 28 23 17                0.001676000
 -11196896.065 6  -5080382.939 5  24428220.933       -2618.060
  -4947847.581 8  -4054979.661 6  21969502.909        -402.009
    -20357.983 6   -124766.871 5  24231861.530        1126.785
   3152273.219 8   2472130.872 7  21232294.197        1345.225
   8067232.854 7   6312480.192 5  22802574.115        3264.898
   8591140.023 6   6735221.678 5  23495052.420        2740.015
  12508389.345 5  10008691.770 3  24998518.805        4142.792
 92 11 19 20 41 30.0010000  0  7 25 11 12 21 28 23 17                0.001690210
 -11275443.893 6  -5141588.672 5  24413273.397       -2618.440
  -4959582.570 8  -4064123.797 6  21967269.887        -380.265
     13765.478 6    -98177.156 5  24238355.537        1147.905
   3192732.674 8   2503657.688 7  21239993.199        1352.176
   8165346.334 6   6388932.176 5  22821244.401        3276.134
   8673363.919 6   6799292.163 5  23510698.481        2741.547
  12632753.633 5  10105598.730 3  25022184.663        4148.009
 92 11 19 20 42  0.0010000  0  7 25 11 12 21 28 23 17                0.001704390
 -11353999.253 6  -5202800.361 5  24398324.490       -2618.455
  -4970665.349 8  -4072759.745 6  21965160.955        -358.490
     48519.426 6    -71096.334 5  24244968.960        1168.964
   3233406.447 8   2535351.509 7  21247733.171        1359.455
   8263796.612 6   6465646.563 5  22839978.721        3287.319
   8755637.104 6   6863401.055 5  23526354.913        2743.417
  12757265.295 5  10202620.470 3  25045879.463        4152.803
 92 11 19 20 42 30.0010000  0  7 25 11 12 21 28 23 17                0.001718560
 -11432554.457 6  -5264012.005 5  24383376.909       -2618.282
  -4981096.891 8  -4080888.206 6  21963175.731        -336.781
     83901.842 6    -43525.625 5  24251701.449        1189.834
   3274287.597 8   2567206.922 7  21255512.755        1365.999
   8362580.060 6   6542620.615 5  22858777.078        3298.390
   8837974.753 6   6927560.169 5  23542023.516        2746.059
  12881908.406 5  10299744.736 4  25069598.637        4156.739
 92 11 19 20 43  0.0010000  0  7 25 11 12 21 28 23 17                0.001732730
 -11511103.820 6  -5325219.112 5  24368429.763       -2618.162
  -4990876.982 8  -4088509.087 6  21961314.619        -315.069
    119911.293 6    -15466.407 5  24258553.481        1210.778
   3315361.902 8   2599212.850 7  21263328.922        1372.220
   8461694.594 6   6619852.599 5  22877638.171        3309.386
   8920401.174 6   6991788.459 5  23557708.686        2749.299
  13006663.469 5  10396956.215 4  25093339.399        4160.401
 92 11 19 20 43 30.0010000  0  7 25 11 12 21 28 23 17                0.001746900
 -11589642.053 6  -5386417.559 5  24353485.273       -2617.570
  -5000000.747 8  -4095618.525 6  21959578.072        -293.110
    156551.074 6     13083.999 5  24265526.489        1231.783
   3356622.355 8   2631363.834 7  21271180.540        1378.576
   8561139.029 6   6697341.664 6  22896561.991        3320.304
   9002926.970 6   7056094.159 5  23573413.393        2752.356
  13131529.432 5  10494254.058 4  25117100.232        4164.061
 92 11 19 20 44  0.0010000  0  7 25 11 12 21 28 23 17                0.001761070
 -11668159.390 6  -5447599.738 5  24338543.389       -2616.608
  -5008469.501 8  -4102217.546 6  21957966.157        -271.249
    193818.824 6     42123.770 5  24272617.576        1252.734
   3398067.723 8   2663658.902 7  21279067.507        1384.528
   8660903.126 6   6775079.806 6  22915546.684        3330.754
   9085544.547 6   7120471.427 5  23589135.740        2755.552
  13256511.466 5  10591642.364 3  25140881.345        4168.112
 92 11 19 20 44 30.0010000  0  7 25 11 12 21 28 23 17                0.001775240
 -11746641.942 6  -5508754.826 5  24323607.547       -2615.481
  -5016279.918 8  -4108303.604 6  21956480.076        -249.332
    231716.122 6     71654.007 5  24279829.342        1273.639
   3439695.200 8   2696095.874 7  21286989.024        1390.612
   8760984.761 6   6853065.407 6  22934591.875        3341.326
   9168257.228 6   7184922.802 5  23604874.297        2758.721
  13381617.102 5  10689127.004 4  25164689.176        4172.191
 92 11 19 20 45  0.0010000  0  7 25 11 12 21 28 23 17                0.001789410
 -11825087.950 6  -5569881.588 5  24308679.699       -2614.035
  -5023431.821 8  -4113876.533 6  21955119.217        -227.334
    270241.720 6    101673.966 5  24287161.319        1294.689
   3481510.942 8   2728679.544 7  21294946.294        1397.176
   8861378.708 6   6931294.342 6  22953695.287        3351.685
   9251060.451 6   7249444.700 5  23620630.481        2761.540
  13506843.013 5  10786705.323 4  25188519.956        4176.292
 92 11 19 20 45 30.0010000  0  7 25 11 12 21 28 23 17                0.001803570
 -11903489.277 6  -5630973.479 5  24293760.339       -2612.545
  -5029922.438 8  -4118934.149 6  21953884.041        -205.236
    309397.019 6    132184.506 5  24294611.763        1315.660
   3523529.180 8   2761421.025 7  21302942.060        1404.082
   8962089.875 6   7009770.442 6  22972860.011        3362.365
   9333941.828 6   7314027.541 5  23636403.158        2763.884
  13632194.279 5  10884381.322 3  25212374.744        4180.564
 92 11 19 20 46  0.0010000  0  7 25 11 12 21 28 23 17                0.001817710
 -11981845.968 6  -5692030.500 5  24278849.713       -2611.010
  -5035747.612 8  -4123473.249 6  21952775.947        -182.935
    349184.713 6    163187.832 5  24302183.019        1336.774
   3565757.908 8   2794326.514 7  21310977.938        1411.258
   9063116.599 6   7088492.459 6  22992084.221        3372.879
   9416902.247 6   7378671.957 5  23652190.258        2766.856
  13757676.341 5  10982159.183 3  25236252.910        4184.852
 92 11 19 20 46 30.0010000  0  7 25 11 12 21 28 23 17                0.001831840
 -12060166.648 6  -5753059.479 5  24263945.739       -2610.304
  -5040902.822 8  -4127490.334 6  21951794.799        -160.635
    389607.841 6    194686.407 5  24309874.882        1357.920
   3608207.021 8   2827403.747 7  21319055.555        1418.730
   9164461.146 6   7167462.143 6  23011369.419        3383.351
   9499946.102 6   7443381.344 5  23667993.262        2769.332
  13883275.597 5  11080028.446 3  25260153.802        4188.331
 92 11 19 20 47  0.0010000  0  7 25 11 12 21 28 23 17                0.001845930
 -12138469.749 6  -5814074.789 5  24249045.883       -2609.837
  -5045389.930 8  -4130986.772 6  21950940.911        -138.435
    430663.171 6    226677.617 5  24317687.573        1378.877
   3650882.021 8   2860656.990 7  21327176.342        1426.346
   9266107.198 6   7246666.768 6  23030712.140        3393.021
   9583053.366 6   7508140.186 5  23683807.478        2771.201
  14008973.914 5  11177974.832 3  25284074.066        4191.593
 92 11 19 20 47 30.0010000  0  7 25 11 12 21 28 23 17                0.001860010
 -12216766.849 6  -5875085.473 5  24234147.081       -2609.916
  -5049210.404 8  -4133963.773 6  21950214.272        -116.228
    472347.655 6    259159.103 5  24325620.484        1399.868
   3693781.164 8   2894084.902 7  21335340.002        1433.569
   9368036.130 6   7326091.801 6  23050108.751        3402.005
   9666219.137 6   7572944.595 5  23699633.686        2773.278
  14134778.111 5  11276003.832 3  25308014.511        4195.344
 92 11 19 20 48  0.0010000  0  7 25 11 12 21 28 23 17                0.001874050
 -12295058.300 6  -5936091.736 5  24219248.053       -2609.361
  -5052363.553 8  -4136420.778 6  21949614.368         -93.892
    514660.562 6    292130.151 5  24333672.868        1420.840
   3736896.425 8   2927681.203 7  21343544.792        1440.722
   9470219.874 6   7405715.374 6  23069553.581        3410.341
   9749456.037 6   7637804.453 5  23715472.890        2775.869
  14260698.664 5  11374123.402 3  25331976.186        4199.223
 92 11 19 20 48 30.0010000  0  6 25 11 12 21 28 23                   0.001888070
 -12373331.265 6  -5997083.530 5  24204352.985       -2608.686
  -5054848.168 8  -4138356.856 6  21949141.946         -71.622
    557601.658 5    325590.835 5  24341844.906        1441.777
   3780219.345 8   2961439.328 7  21351788.724        1447.377
   9572652.196 6   7485532.689 5  23089045.707        3418.402
   9832767.281 6   7702722.246 5  23731326.294        2778.399
 92 11 19 20 49  0.0010000  0  6 25 11 12 21 28 23                   0.001902070
 -12451573.855 6  -6058051.598 5  24189463.135       -2607.348
  -5056665.275 8  -4139772.775 6  21948796.103         -49.402
    601168.595 6    359539.153 5  24350133.994        1462.678
   3823730.143 8   2995343.845 7  21360068.383        1453.384
   9675328.161 6   7565539.813 5  23108585.249        3426.731
   9916159.011 6   7767702.718 5  23747195.390        2781.220
 92 11 19 20 49 30.0010000  0  7 25 11 12 21 15 28 23                0.001916150
 -12529767.531 6  -6118981.563 5  24174583.586       -2605.338
  -5057816.048 8  -4140669.501 6  21948576.549         -27.145
    645358.450 6    393972.837 5  24358542.384        1483.421
   3867407.794 8   3029378.376 7  21368380.028        1458.603
    454376.61915   -172013.60111  25078013.740       -2828.538
   9778254.889 6   7645742.363 5  23128172.366        3435.331
   9999634.840 6   7832748.763 5  23763080.163        2783.954
 92 11 19 20 50  0.0010000  0  7 25 11 12 21 15 28 23                0.001930190
 -12607896.077 6  -6179860.771 5  24159715.428       -2603.239
  -5058298.958 8  -4141045.820 6  21948484.398          -5.000
    690171.461 6    428892.165 5  24367069.588        1504.012
   3911243.817 8   3063536.300 7  21376721.964        1463.892
    369539.593 5   -238118.023 1  25061869.084       -2827.239
   9881451.068 6   7726154.859 5  23147809.618        3444.636
  10083187.479 6   7897854.634 5  23778979.291        2786.110
 92 11 19 20 50 30.0010000  0  7 25 11 12 21 15 28 23                0.001944240
 -12685975.321 6  -6240701.518 5  24144857.460       -2601.937
  -5058115.999 8  -4140903.228 6  21948519.397          17.210
    735604.305 6    464294.346 5  24375714.674        1524.644
   3955247.047 8   3097824.549 7  21385095.516        1469.683
    284745.746 5   -304191.041 1  25045733.738       -2825.785
   9984942.828 6   7806797.713 5  23167503.569        3454.863
  10166800.991 6   7963007.950 5  23794890.272        2788.074
 92 11 19 20 51  0.0010000  0  7 25 11 12 21 15 28 23                0.001958280
 -12764015.793 6  -6301512.067 5  24130006.614       -2600.634
  -5057267.976 8  -4140242.433 6  21948680.935          39.429
    781654.461 6    500177.611 5  24384478.686        1545.228
   3999426.954 8   3132250.448 7  21393502.737        1475.839
    199986.705 5   -370236.795 2  25029606.512       -2824.917
  10088743.577 6   7887681.293 5  23187255.867        3465.199
  10250465.829 6   8028201.279 5  23810811.318        2789.574
 92 11 19 20 51 30.0010000  0  7 25 11 12 21 15 28 23                0.001972310
 -12842016.241 6  -6362291.418 5  24115163.080       -2599.320
  -5055753.906 8  -4139062.672 6  21948969.164          61.572
    828321.527 6    536541.576 5  24393359.649        1565.783
   4043798.437 8   3166825.610 7  21401946.221        1482.263
    115250.174 5   -436264.987 1  25013481.500       -2824.147
  10192850.505 6   7968803.435 5  23207067.158        3475.230
  10334177.956 6   8093431.412 5  23826742.519        2791.235
 92 11 19 20 52  0.0010000  0  7 25 11 12 21 15 28 23                0.001986330
 -12919977.634 6  -6423040.313 5  24100327.601       -2597.878
  -5053571.608 8  -4137362.158 6  21949384.336          83.930
    875606.407 6    573386.968 5  24402358.067        1586.424
   4088376.899 8   3201562.059 7  21410428.980        1489.565
     30540.993 5   -502272.033 1  24997360.427       -2823.223
  10297260.931 6   8050162.125 5  23226935.907        3485.237
  10417951.203 6   8158709.196 5  23842684.824        2793.484
 92 11 19 20 52 30.0020000  0  7 25 11 12 21 15 28 23                0.002000330
 -12997884.550 6  -6483746.681 5  24085503.233       -2595.400
  -5050720.506 8  -4135140.522 6  21949926.642         106.239
    923509.541 6    610714.016 5  24411473.472        1606.942
   4133165.430 8   3236462.191 7  21418951.917        1496.132
    -54146.776 5   -568262.260 1  24981246.626       -2822.424
  10401955.100 6   8131741.888 5  23246858.746        3493.986
  10501788.806 6   8224037.089 5  23858638.398        2795.587
 92 11 19 20 53  0.0020000  0  7 25 11 12 21 15 28 23                0.002014320
 -13075703.867 6  -6544384.815 5  24070694.405       -2592.316
  -5047199.319 8  -4132396.750 6  21950596.878         128.518
    972027.873 6    648520.487 5  24420705.111        1627.415
   4178136.142 8   3271504.283 7  21427509.921        1501.946
   -138807.310 5   -634231.223 2  24965136.182       -2821.468
  10506893.057 6   8213511.647 5  23266827.509        3501.693
  10585693.041 6   8289416.906 5  23874604.346        2797.969
 92 11 19 20 53 30.0020000  0  7 25 11 12 21 15 28 23                0.002028310
 -13153419.883 6  -6604942.516 5  24055905.843       -2588.669
  -5043006.779 8  -4129129.845 6  21951395.014         151.148
   1021162.826 6    686807.434 5  24430055.010        1648.224
   4223283.481 8   3306683.999 7  21436101.067        1507.904
   -223425.636 5   -700167.360 2  24949031.862       -2819.656
  10612054.226 6   8295455.288 5  23286839.475        3509.228
  10669672.702 6   8354855.557 5  23890585.391        2800.912
 92 11 19 20 54  0.0020000  0  7 25 11 12 21 15 28 23                0.002042310
 -13231040.846 6  -6665426.153 5  24041134.290       -2586.020
  -5038140.063 8  -4125337.598 6  21952321.186         173.417
   1070915.729 6    725575.831 5  24439522.489        1668.569
   4268608.243 8   3342001.969 7  21444726.035        1513.687
   -307995.802 5   -766065.983 3  24932938.936       -2818.346
  10717437.086 6   8377571.703 5  23306893.294        3516.341
  10753730.711 6   8420355.167 5  23906580.719        2802.950
 92 11 19 20 54 30.0020000  0  7 25 11 12 21 15 28 23                0.002056290
 -13308589.136 6  -6725853.137 5  24026376.765       -2584.111
  -5032600.457 8  -4121021.029 6  21953375.224         195.883
   1121283.826 6    764823.682 5  24449108.322        1689.113
   4314105.503 8   3377454.357 7  21453383.952        1519.496
   -392529.456 5   -831936.222 3  24916852.672       -2817.263
  10823032.583 6   8459853.833 5  23326987.243        3523.334
  10837855.891 6   8485907.208 5  23922589.137        2805.459
 92 11 19 20 55  0.0020000  0  7 25 11 12 21 15 28 23                0.002070260
 -13386097.648 6  -6786249.148 5  24011626.275       -2583.038
  -5026385.067 8  -4116177.892 6  21954557.906         218.526
   1172268.587 6    804552.068 5  24458811.054        1709.681
   4359794.276 8   3413055.967 7  21462078.202        1526.594
   -477022.310 5   -897774.581 4  24900774.223       -2815.599
  10928844.205 6   8542304.288 5  23347123.094        3530.866
  10922060.816 6   8551521.333 5  23938612.574        2808.216
 92 11 19 20 55 30.0020000  0  7 25 11 12 21 15 28 23                0.002084200
 -13463579.230 6  -6846624.099 5  23996882.554       -2582.478
  -5019488.853 8  -4110804.202 6  21955870.246         241.187
   1223873.518 6    844763.575 5  24468632.340        1730.374
   4405707.016 8   3448832.086 7  21470815.214        1534.148
   -561464.276 5   -963573.317 4  24884704.806       -2813.895
  11034888.039 6   8624935.756 5  23367302.095        3538.695
  11006345.875 6   8617197.929 5  23954652.318        2810.756
 92 11 19 20 56  0.0020000  0  7 25 11 12 21 15 28 23                0.002098110
 -13541042.469 6  -6906984.743 5  23982141.679       -2581.510
  -5011911.415 8  -4104899.720 6  21957312.169         264.010
   1276097.754 6    885457.753 5  24478569.735        1751.099
   4451851.134 8   3484788.519 7  21479596.016        1542.174
   -645856.777 5  -1029333.502 5  24868645.917       -2812.081
  11141165.666 6   8707749.342 5  23387526.200        3546.425
  11090703.477 6   8682931.010 5  23970705.507        2813.141
 92 11 19 20 56 30.0020000  0  7 25 11 12 21 15 28 23                0.002111990
 -13618461.836 6  -6967311.282 5  23967409.388       -2579.451
  -5003649.622 8  -4098461.981 6  21958883.882         286.911
   1328943.191 6    926635.979 5  24488624.889        1771.822
   4498241.078 8   3520936.469 7  21488423.813        1550.596
   -730187.012 5  -1095045.232 5  24852598.317       -2809.719
  11247669.125 6   8790738.948 5  23407793.613        3553.972
  11175142.152 6   8748727.267 5  23986772.815        2816.187
 92 11 19 20 57  0.0020000  0  7 25 11 12 21 15 28 23                0.002125860
 -13695803.158 6  -7027576.996 5  23952691.535       -2576.474
  -4994704.020 8  -4091491.396 6  21960586.163         309.469
   1382407.613 6    968296.418 5  24498798.523        1792.205
   4544883.258 8   3557280.986 7  21497299.351        1558.711
   -814435.475 5  -1160693.181 5  24836565.273       -2806.902
  11354405.148 6   8873909.749 5  23428105.039        3561.742
  11259665.291 6   8814589.370 5  24002857.027        2818.715
 92 11 19 20 57 30.0020000  0  7 25 11 12 21 15 28 23                0.002139720
 -13773047.594 6  -7087767.206 5  23937992.751       -2573.087
  -4985078.407 8  -4083990.933 6  21962417.905         332.085
   1436485.764 6   1010435.198 5  24509089.500        1812.646
   4591760.562 8   3593808.728 7  21506219.584        1566.221
   -898598.048 5  -1226274.223 5  24820549.540       -2804.280
  11461373.419 6   8957261.512 5  23448460.100        3569.309
  11344267.136 6   8880512.762 5  24018956.818        2821.381
 92 11 19 20 58  0.0020000  0  7 25 11 12 21 15 28 23                0.002153570
 -13850185.870 6  -7147874.615 5  23923313.445       -2569.440
  -4974774.851 8  -4075962.219 6  21964378.658         354.721
   1491174.266 6   1053049.487 5  24519495.878        1833.038
   4638856.883 8   3630507.090 7  21515181.818        1573.360
   -982694.608 5  -1291803.876 5  24804546.721       -2802.193
  11568569.782 6   9040791.037 5  23468858.207        3576.955
  11428964.498 6   8946510.638 5  24035074.064        2824.927
 92 11 19 20 58 30.0020000  0  7 25 11 12 21 15 28 23                0.002167430
 -13927209.957 6  -7207892.991 5  23908655.832       -2565.635
  -4963789.791 8  -4067402.431 6  21966469.227         377.521
   1546475.356 6   1096141.237 5  24530019.698        1853.419
   4686162.831 8   3667368.848 7  21524183.838        1580.109
  -1066723.744 6  -1357280.958 5  24788556.819       -2799.816
  11675999.920 6   9124502.658 5  23489301.846        3584.884
  11513766.807 6   9012590.264 5  24051212.382        2828.281
 92 11 19 20 59  0.0020000  0  7 25 11 12 21 15 28 23                0.002181290
 -14004133.113 6  -7267832.862 5  23894017.158       -2562.528
  -4952125.805 8  -4058313.639 6  21968689.003         400.150
   1602385.048 6   1139707.182 5  24540659.794        1873.761
   4733655.863 8   3704376.371 7  21533221.382        1585.938
  -1150691.610 6  -1422710.291 5  24772577.794       -2798.215
  11783662.067 6   9208395.110 5  23509789.291        3592.393
  11598654.717 6   9078736.537 5  24067365.909        2830.981
 92 11 19 20 59 30.0020000  0  7 25 11 12 21 15 28 23                0.002195140
 -14080960.307 6  -7327697.936 5  23879397.166       -2559.018
  -4939778.618 8  -4048692.464 6  21971038.568         423.018
   1658906.231 6   1183749.538 5  24551415.926        1894.239
   4781317.913 8   3741515.559 7  21542291.341        1591.536
  -1234616.668 6  -1488106.275 5  24756607.470       -2796.891
  11891543.219 6   9292458.194 5  23530318.673        3599.692
  11683625.707 6   9144947.649 5  24083534.847        2833.665
 92 11 19 21  0  0.0020000  0  7 25 11 12 21 15 28 23                0.002208970
 -14157677.833 6  -7387477.417 5  23864798.595       -2555.218
  -4926746.632 8  -4038537.689 6  21973518.278         445.902
   1716039.016 6   1228268.586 5  24562287.561        1914.641
   4829149.784 8   3778787.115 7  21551393.691        1597.412
  -1318505.613 6  -1553474.262 5  24740642.214       -2795.310
  11999638.350 6   9376688.039 5  23550888.849        3606.657
  11768669.848 6   9211215.633 5  24099717.065        2835.818
 92 11 19 21  0 30.0020000  0  7 25 11 12 21 15 28 23                0.002222790
 -14234280.707 6  -7447167.642 5  23850221.295       -2551.587
  -4913027.454 8  -4027847.439 6  21976128.852         468.729
   1773784.666 6   1273265.080 5  24573275.895        1934.943
   4877161.995 8   3816199.189 7  21560530.494        1603.439
  -1402333.040 6  -1618794.196 4  24724690.012       -2793.342
  12107938.958 6   9461078.003 5  23571498.162        3613.302
  11853757.589 6   9277517.721 5  24115909.106        2836.861
 92 11 19 21  1  0.0020000  0  7 25 11 12 21 15 28 23                0.002236610
 -14310772.075 6  -7506771.016 5  23835665.724       -2547.728
  -4898623.888 8  -4016623.885 6  21978869.733         491.528
   1832138.704 6   1318735.686 5  24584380.852        1955.165
   4925355.832 8   3853752.769 7  21569701.756        1609.394
  -1486110.711 6  -1684075.345 4  24708747.726       -2791.805
  12216434.527 6   9545619.866 5  23592144.697        3619.747
  11938893.235 6   9343857.066 5  24132109.825        2838.917
 92 11 19 21  1 30.0020000  0  7 25 11 12 21 15 28 23                0.002250400
 -14387143.727 6  -7566281.077 5  23821131.885       -2543.579
  -4883535.446 8  -4004866.666 6  21981741.108         514.446
   1891100.383 6   1364679.824 5  24595600.928        1975.463
   4973738.785 8   3891453.743 7  21578908.542        1616.241
  -1569833.204 6  -1749313.490 5  24692816.090       -2789.463
  12325128.410 6   9630316.246 5  23612828.190        3626.538
  12024102.223 6   9410253.540 5  24148324.722        2841.666
 92 11 19 21  2  0.0020000  0  7 25 11 12 21 15 28 23                0.002264190
 -14463394.458 6  -7625696.846 5  23806620.842       -2539.906
  -4867758.388 8  -3992572.871 6  21984743.247         537.322
   1950672.070 6   1411099.197 5  24606937.432        1995.688
   5022329.912 8   3929316.923 7  21588155.321        1622.979
  -1653477.240 6  -1814490.518 5  24676898.479       -2786.708
  12434026.821 6   9715172.016 5  23633550.592        3633.119
  12109396.868 6   9476716.837 5  24164556.065        2844.418
 92 11 19 21  2 30.0020000  0  7 25 11 12 21 15 28 23                0.002277980
 -14539540.474 6  -7685031.151 5  23792130.093       -2536.275
  -4851293.346 8  -3979742.987 6  21987876.778         560.448
   2010851.974 6   1457992.593 5  24618388.993        2016.149
   5071118.167 8   3967333.694 7  21597439.286        1629.456
  -1737031.461 6  -1879597.565 5  24660999.384       -2783.772
  12543121.518 6   9800180.695 5  23654310.803        3639.951
  12194779.462 6   9543248.576 5  24180804.207        2847.929
 92 11 19 21  3  0.0020000  0  7 25 11 12 21 15 28 23                0.002291760
 -14615577.306 6  -7744280.384 5  23777659.868       -2532.659
  -4834141.480 8  -3966377.911 6  21991140.909         583.150
   2071637.393 6   1505357.759 5  24629955.881        2036.171
   5120087.660 8   4005491.699 7  21606757.963        1635.283
  -1820507.347 6  -1944643.537 5  24645114.645       -2780.986
  12652415.700 6   9885344.835 5  23675108.458        3646.489
  12280266.676 6   9609861.909 5  24197072.006        2851.195
 92 11 19 21  3 30.0020000  0  7 25 11 12 21 15 28 23                0.002305550
 -14691506.487 6  -7803445.701 5  23763211.061       -2529.264
  -4816311.519 8  -3952484.452 6  21994533.979         605.601
   2133018.154 6   1553186.838 5  24641636.847        2055.800
   5169236.266 8   4043789.277 7  21616110.640        1641.341
  -1903894.587 5  -2009620.447 5  24629246.807       -2778.078
  12761898.907 6   9970656.273 5  23695942.481        3652.289
  12365833.112 6   9676536.922 5  24213354.983        2853.078
 92 11 19 21  4  0.0020000  0  7 25 11 12 21 15 28 23                0.002319320
 -14767336.292 6  -7862533.550 5  23748781.392       -2525.869
  -4797807.005 8  -3938065.379 6  21998055.404         628.110
   2194989.498 6   1601476.185 5  24653429.132        2075.504
   5218561.766 8   4082224.692 7  21625497.060        1647.106
  -1987196.516 6  -2074530.858 5  24613395.042       -2775.396
  12871552.411 6  10056100.453 5  23716809.424        3657.816
  12451446.025 6   9743248.163 5  24229646.621        2854.455
 92 11 19 21  4 30.0020000  0  7 25 11 12 21 15 28 23                0.002333070
 -14843059.943 6  -7921538.753 5  23734371.088       -2522.160
  -4778629.422 8  -3923121.819 6  22001704.557         650.419
   2257548.728 6   1650223.580 5  24665333.431        2094.924
   5268065.038 8   4120798.627 7  21634917.488        1653.246
  -2070421.794 6  -2139381.539 5  24597556.637       -2773.160
  12981368.417 6  10141671.167 5  23737706.940        3663.311
  12537102.145 6   9809993.047 5  24245947.348        2856.001
 92 11 19 21  5  0.0020000  0  7 25 11 12 21 15 28 23                0.002346800
 -14918670.266 6  -7980455.686 5  23719982.968       -2518.318
  -4758785.434 8  -3907658.970 6  22005480.554         672.703
   2320687.810 6   1699422.812 5  24677349.038        2114.316
   5317762.371 8   4159523.797 7  21644374.572        1660.210
  -2153575.959 6  -2204176.807 5  24581732.319       -2770.230
  13091338.083 6  10227361.682 5  23758634.279        3668.238
  12622800.838 6   9876771.148 5  24262255.412        2857.392
 92 11 19 21  5 30.0020000  0  7 25 11 12 21 15 28 23                0.002360490
 -14994161.365 6  -8039279.715 5  23705617.385       -2514.291
  -4738267.217 8  -3891670.772 6  22009385.201         695.214
   2384413.177 6   1749078.996 5  24689475.512        2133.903
   5367677.743 8   4198418.858 7  21653873.026        1667.556
  -2236634.760 6  -2268897.833 5  24565927.782       -2767.042
  13201454.976 6  10313166.866 5  23779588.275        3672.922
  12708544.988 6   9943584.620 5  24278571.454        2859.050
 92 11 19 21  6  0.0020000  0  7 25 11 12 21 15 28 23                0.002374160
 -15069526.809 6  -8098005.873 5  23691275.701       -2509.819
  -4717076.014 8  -3875158.189 6  22013417.466         717.663
   2448722.297 6   1799189.973 5  24701712.573        2153.290
   5417809.095 8   4237482.230 7  21663412.662        1674.631
  -2319597.601 6  -2333544.022 5  24550140.282       -2763.705
  13311714.477 6  10399083.178 5  23800569.470        3677.769
  12794353.819 6  10010448.541 5  24294900.241        2861.761
 92 11 19 21  6 30.0020000  0  7 25 11 12 21 15 28 23                0.002387820
 -15144754.511 6  -8156624.684 5  23676960.539       -2505.134
  -4695212.136 8  -3858121.370 6  22017578.016         740.079
   2513613.611 6   1849754.565 5  24714061.164        2172.720
   5468157.916 8   4276715.034 7  21672993.757        1682.024
  -2402451.988 6  -2398105.674 5  24534374.141       -2759.841
  13422116.845 6  10485110.846 5  23821577.584        3682.471
  12880247.519 6  10077378.535 5  24311245.759        2864.610
 92 11 19 21  7  0.0020000  0  7 25 11 12 21 15 28 23                0.002401460
 -15219844.626 6  -8215136.354 5  23662671.890       -2500.609
  -4672677.522 8  -3840561.972 6  22021866.539         762.521
   2579083.925 6   1900770.431 5  24726519.829        2192.062
   5518720.945 8   4316114.768 7  21682615.578        1688.947
  -2485186.092 6  -2462573.667 5  24518630.584       -2755.554
  13532660.332 6  10571248.501 5  23842613.691        3687.347
  12966226.408 6  10144374.927 5  24327606.678        2867.566
 92 11 19 21  7 30.0020000  0  7 25 11 12 21 15 28 23                0.002415100
 -15294793.507 7  -8273537.991 5  23648409.597       -2495.739
  -4649469.392 8  -3822477.731 6  22026283.213         784.845
   2645134.574 6   1952238.444 5  24739088.813        2211.323
   5569483.581 8   4355670.050 7  21692275.639        1695.334
  -2567798.948 6  -2526947.195 5  24502909.829       -2751.971
  13643355.739 6  10657504.441 5  23863678.960        3692.531
  13052301.671 6  10211446.393 5  24343986.110        2870.842
 92 11 19 21  8  0.0020000  0  7 25 11 12 21 15 28 23                0.002428730
 -15369595.167 7  -8331824.921 5  23634174.751       -2490.948
  -4625591.155 8  -3803871.340 6  22030827.216         807.103
   2711761.067 6   2004155.073 5  24751767.580        2230.377
   5620438.569 8   4395375.207 7  21701972.277        1701.660
  -2650312.565 6  -2591243.387 4  24487206.518       -2748.925
  13754207.193 6  10743882.010 5  23884773.721        3697.431
  13138468.830 6  10278589.525 5  24360382.487        2873.528
 92 11 19 21  8 30.0020000  0  7 25 11 12 21 15 28 23                0.002442340
 -15444256.537 7  -8390002.496 5  23619966.758       -2486.311
  -4601043.786 8  -3784743.550 6  22035498.333         829.443
   2778961.030 6   2056518.633 5  24764554.413        2249.485
   5671584.742 8   4435229.327 7  21711704.830        1708.121
  -2732740.490 5  -2655472.870 4  24471520.632       -2746.336
  13865202.032 6  10830371.354 5  23905894.217        3702.223
  13224709.005 6  10345789.452 5  24376794.143        2875.843
 92 11 19 21  9  0.0020000  0  7 25 11 12 21 15 28 23                0.002455930
 -15518772.297 7  -8448066.611 5  23605787.290       -2481.289
  -4575825.323 8  -3765092.824 6  22040296.829         851.893
   2846735.044 6   2109329.511 5  24777451.185        2268.754
   5722921.814 8   4475232.241 7  21721473.228        1714.412
  -2815098.210 5  -2719647.551 4  24455848.606       -2744.092
  13976344.003 6  10916975.275 5  23927044.297        3707.109
  13311021.249 5  10413045.689 5  24393218.040        2878.186
 92 11 19 21  9 30.0020000  0  7 25 11 12 21 15 28 23                0.002469490
 -15593140.549 7  -8506015.851 5  23591635.521       -2476.462
  -4549937.173 8  -3744920.269 6  22045223.427         874.133
   2915080.820 5   2162585.808 5  24790456.336        2287.661
   5774446.541 8   4515381.357 7  21731278.420        1720.768
  -2897390.768 5  -2783771.444 5  24440188.508       -2741.948
  14087613.028 6  11003678.238 5  23948218.702        3710.747
  13397393.918 6  10480348.865 5  24409654.596        2880.006
 92 11 19 21 10  0.0020000  0  7 25 11 12 21 15 28 23                0.002483010
 -15667369.924 7  -8563856.933 5  23577510.040       -2472.048
  -4523376.979 8  -3724224.043 6  22050277.680         896.631
   2983999.377 6   2216288.542 5  24803572.339        2306.863
   5826173.053 8   4555687.692 7  21741121.963        1727.604
  -2979602.991 6  -2847832.772 5  24424544.083       -2738.623
  14198983.433 6  11090460.202 5  23969411.630        3713.966
  13483821.282 5  10547694.759 5  24426102.289        2881.942
 92 11 19 21 10 30.0020000  0  7 25 11 12 21 15 28 23                0.002496510
 -15741462.340 7  -8621591.200 5  23563410.390       -2467.277
  -4496139.343 8  -3702999.933 6  22055460.982         919.235
   3053494.810 6   2270440.698 5  24816798.238        2326.024
   5878099.946 8   4596150.189 7  21751003.084        1734.177
  -3061698.996 6  -2911803.533 5  24408921.986       -2734.378
  14310456.174 6  11177321.856 5  23990625.013        3717.642
  13570317.148 6  10615093.972 5  24442563.073        2884.556
 92 11 19 21 11  0.0020000  0  7 25 11 12 21 15 28 23                0.002510000
 -15815414.057 7  -8679215.846 5  23549337.773       -2462.801
  -4468225.827 8  -3681249.170 6  22060772.374         941.705
   3123564.282 6   2325040.206 5  24830133.262        2345.062
   5930224.297 8   4636766.526 7  21760921.908        1740.868
  -3143659.476 6  -2975668.694 5  24393325.726       -2729.569
  14422042.331 6  11264271.960 5  24011860.114        3721.262
  13656892.536 6  10682555.207 5  24459037.803        2887.134
 92 11 19 21 11 30.0020000  0  7 25 11 12 21 15 28 23                0.002523460
 -15889238.017 7  -8736740.987 5  23535289.557       -2458.633
  -4439641.557 8  -3658975.747 6  22066211.659         963.987
   3194201.700 6   2380082.293 5  24843574.792        2363.913
   5982553.038 8   4677542.148 7  21770879.935        1747.759
  -3225476.678 6  -3039422.162 5  24377756.011       -2724.871
  14533734.068 6  11351304.263 5  24033114.075        3725.042
  13743542.136 6  10750074.158 5  24475526.516        2889.683
 92 11 19 21 12  0.0020000  0  7 25 11 12 21 15 28 23                0.002536910
 -15962929.389 7  -8794162.824 5  23521266.346       -2453.837
  -4410388.838 8  -3636181.450 6  22071778.195         986.237
   3265403.420 6   2435564.047 5  24857123.333        2382.684
   6035086.917 8   4718477.614 7  21780876.503        1754.461
  -3307153.377 6  -3103066.179 5  24362212.700       -2720.327
  14645550.157 6  11438433.506 5  24054392.052        3729.514
  13830267.960 6  10817652.638 5  24492029.474        2892.024
 92 11 19 21 12 30.0020000  0  7 25 11 12 21 15 28 23                0.002550360
 -16036467.601 7  -8851465.259 5  23507272.443       -2448.438
  -4380470.405 8  -3612868.416 6  22077471.674        1008.420
   3337165.476 6   2491482.475 5  24870779.708        2401.400
   6087814.657 8   4759564.133 7  21790910.327        1760.888
  -3388707.228 6  -3166614.524 5  24346693.864       -2716.660
  14757506.772 6  11525672.232 5  24075696.870        3734.237
  13917056.501 6  10885279.884 5  24508544.784        2893.969
 92 11 19 21 13  0.0020000  0  7 25 11 12 21 15 28 23                0.002563780
 -16109841.383 7  -8908639.589 5  23493310.560       -2443.058
  -4349885.744 8  -3589036.229 6  22083291.965        1030.586
   3409487.206 6   2547836.939 5  24884541.011        2419.912
   6140745.945 8   4800809.282 7  21800982.626        1767.827
  -3470161.629 6  -3230085.337 5  24331193.939       -2713.572
  14869596.295 6  11613014.479 5  24097028.058        3738.300
  14003903.461 6  10952952.687 5  24525071.327        2895.643
 92 11 19 21 13 30.0020000  0  7 25 11 12 21 15 28 23                0.002577170
 -16183046.453 7  -8965682.506 5  23479380.143       -2437.078
  -4318637.842 8  -3564687.271 6  22089237.828        1052.634
   3482364.522 6   2604624.401 5  24898408.656        2438.368
   6193878.458 8   4842211.196 7  21811093.385        1774.225
  -3551523.894 6  -3293484.366 5  24315710.705       -2710.459
  14981802.287 6  11700447.565 5  24118380.472        3742.216
  14090791.094 6  11020657.170 5  24541604.899        2896.833
 92 11 19 21 14  0.0020000  0  7 25 11 12 21 15 28 23                0.002590540
 -16256069.505 7  -9022583.543 5  23465484.221       -2430.875
  -4286727.963 8  -3539822.469 6  22095310.375        1074.777
   3555795.033 6   2661842.922 5  24912382.062        2456.909
   6247191.853 8   4883754.072 7  21821238.651        1780.053
  -3632792.638 6  -3356810.543 4  24300246.109       -2707.305
  15094125.512 6  11787971.904 5  24139754.825        3746.072
  14177715.929 6  11088390.632 5  24558146.636        2898.368
 92 11 19 21 14 30.0020000  0  7 25 11 12 21 15 28 23                0.002603890
 -16328906.929 7  -9079339.886 5  23451623.658       -2424.819
  -4254151.950 8  -3514438.586 6  22101509.744        1097.004
   3629781.578 6   2719494.662 5  24926461.891        2475.439
   6300681.291 8   4925434.131 7  21831417.255        1786.043
  -3713959.637 6  -3420057.485 4  24284800.892       -2703.655
  15206561.328 6  11875584.119 5  24161149.474        3749.584
  14264699.260 5  11156169.730 5  24574698.830        2900.779
 92 11 19 21 15  0.0020000  0  7 25 11 12 21 15 28 23                0.002617230
 -16401561.526 7  -9135953.837 5  23437797.301       -2418.743
  -4220905.866 8  -3488532.601 6  22107836.282        1119.469
   3704326.988 6   2777581.968 5  24940647.906        2494.121
   6354356.946 8   4967259.271 7  21841631.383        1792.279
  -3795002.177 6  -3483207.339 4  24269378.647       -2698.967
  15319098.202 6  11963274.969 5  24182564.599        3752.864
  14351765.477 5  11224013.358 5  24591267.111        2903.604
 92 11 19 21 15 30.0020000  0  7 25 11 12 21 15 28 23                0.002630570
 -16474034.167 7  -9192425.996 5  23424006.417       -2412.619
  -4186987.133 8  -3462102.453 6  22114291.165        1141.896
   3779432.839 6   2836105.954 5  24954940.294        2512.814
   6408211.888 8   5009224.137 7  21851880.128        1798.090
  -3875900.475 6  -3546244.843 4  24253984.098       -2694.209
  15431731.043 6  12051040.636 5  24203998.620        3755.921
  14438916.518 5  11291923.139 5  24607851.822        2906.670
 92 11 19 21 16  0.0020000  0  7 25 11 12 21 15 28 23                0.002643900
 -16546327.919 7  -9248758.700 5  23410249.262       -2406.803
  -4152398.839 8  -3435150.581 6  22120872.989        1164.068
   3855094.820 6   2895063.232 5  24969338.993        2531.238
   6462238.895 8   5051323.062 7  21862161.020        1803.848
  -3956654.674 6  -3609170.027 5  24238616.356       -2689.315
  15544442.147 6  12138867.260 5  24225446.784        3758.055
  14526169.740 5  11359912.472 5  24624454.815        2910.257
 92 11 19 21 16 30.0020000  0  7 25 11 12 21 15 28 23                0.002657220
 -16618443.496 7  -9304952.589 5  23396525.754       -2400.842
  -4117143.908 8  -3407679.259 6  22127581.824        1186.239
   3931309.070 6   2954450.954 5  24983842.823        2549.511
   6516452.900 8   5093567.700 7  21872477.551        1810.497
  -4037251.632 6  -3671972.684 5  24223279.514       -2683.874
  15657206.493 5  12226735.372 5  24246904.334        3759.418
  14613526.367 5  11427982.431 5  24641078.316        2913.465
 92 11 19 21 17  0.0020000  0  7 25 11 12 21 15 28 23                0.002670510
 -16690380.349 7  -9361007.180 5  23382836.142       -2394.657
  -4081223.374 8  -3379689.268 6  22134417.112        1208.565
   4008073.390 6   3014267.207 5  24998450.264        2567.945
   6570873.616 8   5135973.411 7  21882833.620        1817.577
  -4117682.280 6  -3734645.758 5  24207973.699       -2678.249
  15770010.973 5  12314634.775 5  24268369.646        3761.005
  14700969.538 5  11496119.818 5  24657717.816        2915.987
 92 11 19 21 17 30.0020000  0  7 25 11 12 21 15 28 23                0.002683780
 -16762121.195 7  -9416909.120 5  23369184.331       -2387.919
  -4044631.629 8  -3351176.255 6  22141380.322        1230.823
   4085392.329 6   3074515.655 5  25013161.981        2586.362
   6625509.925 8   5178547.113 7  21893230.560        1824.878
  -4197950.156 6  -3797192.024 5  24192699.105       -2672.953
  15882870.297 5  12402576.933 5  24289845.908        3762.976
  14788488.003 5  11564315.889 5  24674372.656        2918.559
 92 11 19 21 18  0.0020000  0  7 25 11 12 21 15 28 23                0.002697020
 -16833653.788 7  -9472648.711 5  23355571.883       -2380.954
  -4007370.922 8  -3322141.996 6  22148470.842        1253.173
   4163262.556 6   3135193.713 5  25027979.292        2604.730
   6680375.048 8   5221299.108 7  21903671.303        1832.843
  -4278047.615 6  -3859605.464 5  24177455.666       -2667.022
  15995797.068 5  12490571.645 5  24311335.820        3765.539
  14876083.830 5  11632572.188 5  24691042.189        2920.988
 92 11 19 21 18 30.0020000  0  7 25 11 12 21 15 28 23                0.002710250
 -16904984.066 7  -9528230.610 5  23341998.620       -2374.354
  -3969447.347 8  -3292591.185 6  22155687.765        1275.143
   4241676.876 6   3196295.684 5  25042901.289        2622.732
   6735476.095 8   5264234.952 7  21914156.806        1840.535
  -4357983.711 6  -3921893.184 5  24162244.146       -2662.108
  16108816.227 5  12578638.264 5  24332843.975        3769.027
  14963740.436 6  11700875.934 5  24707723.088        2922.877
 92 11 19 21 19  0.0020000  0  7 25 11 12 21 15 28 23                0.002723460
 -16976113.862 7  -9583656.305 5  23328463.232       -2367.435
  -3930861.322 7  -3262524.192 6  22163030.123        1297.282
   4320633.901 6   3257820.579 5  25057925.819        2640.881
   6790800.961 8   5307345.196 7  21924684.608        1847.661
  -4437773.793 6  -3984067.117 5  24147060.808       -2657.252
  16221945.651 5  12666790.795 5  24354372.143        3772.901
  15051457.966 6  11769227.074 5  24724415.851        2925.009
 92 11 19 21 19 30.0020000  0  7 25 11 12 21 15 28 23                0.002736670
 -17047031.412 7  -9638916.601 5  23314968.251       -2360.354
  -3891612.012 7  -3231940.355 6  22170498.675        1319.442
   4400133.450 6   3319768.253 5  25073053.718        2658.930
   6846335.213 8   5350618.598 6  21935252.111        1854.614
  -4517413.607 6  -4046123.951 5  24131905.449       -2651.852
  16335189.441 5  12755032.565 5  24375921.989        3776.696
  15139248.932 6  11837635.487 5  24741122.716        2927.805
 92 11 19 21 20  0.0020000  0  7 25 11 12 21 15 28 23                0.002749880
 -17117745.412 7  -9694018.322 5  23301511.690       -2353.732
  -3851702.608 7  -3200842.189 6  22178092.825        1341.365
   4480171.161 6   3382135.175 5  25088285.463        2676.840
   6902070.590 8   5394048.717 6  21945858.409        1861.072
  -4596887.263 6  -4108051.373 5  24116781.542       -2646.399
  16448539.444 5  12843357.031 5  24397491.739        3779.943
  15227122.135 6  11906107.927 5  24757844.420        2930.415
 92 11 19 21 20 30.0020000  0  7 25 11 12 21 15 28 23                0.002763080
 -17188258.127 7  -9748963.200 5  23288093.428       -2346.973
  -3811136.473 8  -3169232.249 6  22185812.402        1363.091
   4560742.850 6   3444918.259 5  25103618.585        2694.464
   6957991.618 8   5437623.496 6  21956499.781        1866.924
  -4676204.151 6  -4169856.610 5  24101687.777       -2641.264
  16561971.435 5  12931745.372 5  24419077.742        3781.955
  15315071.930 5  11974640.086 5  24774580.643        2932.851
 92 11 19 21 21  0.0020000  0  7 25 11 12 21 15 28 23                0.002776270
 -17258566.426 7  -9803748.720 5  23274714.099       -2339.905
  -3769919.342 8  -3137115.050 6  22193656.402        1384.775
   4641841.463 6   3508111.966 5  25119051.472        2712.015
   7014083.800 8   5481331.654 6  21967173.970        1872.653
  -4755362.433 6  -4231538.259 5  24086625.079       -2635.842
  16675449.071 6  13020169.296 5  24440672.736        3783.261
  15403090.005 5  12043225.429 5  24791328.517        2935.063
 92 11 19 21 21 30.0020000  0  7 25 11 12 21 15 28 23                0.002789430
 -17328660.446 7  -9858367.306 5  23261375.574       -2333.002
  -3728053.968 8  -3104492.743 6  22201623.495        1406.310
   4723463.635 5   3571713.507 5  25134583.599        2729.343
   7070351.526 8   5525176.596 6  21977881.309        1878.640
  -4834352.463 6  -4293088.768 5  24071594.289       -2630.271
  16788964.416 5  13108622.551 5  24462273.189        3784.464
  15491168.625 5  12111857.959 5  24808087.966        2936.916
 92 11 19 21 22  0.0020000  0  7 25 11 12 21 15 28 23                0.002802570
 -17398544.115 7  -9912821.947 5  23248077.051       -2325.887
  -3685541.570 8  -3071366.235 6  22209713.365        1427.764
   4805606.935 5   3635721.268 5  25150214.601        2746.606
   7126808.433 8   5569168.950 6  21988624.872        1884.981
  -4913186.157 6  -4354517.465 5  24056592.937       -2625.508
  16902513.383 5  13197102.084 5  24483881.245        3785.217
  15579304.645 5  12180535.216 5  24824859.735        2938.802
 92 11 19 21 22 30.0020000  0  7 25 11 12 21 15 28 23                0.002815680
 -17468214.212 7  -9967110.173 5  23234819.339       -2318.852
  -3642384.596 8  -3037737.467 6  22217925.951        1449.301
   4888268.164 6   3700132.484 5  25165944.816        2763.902
   7183463.928 8   5613316.052 6  21999405.967        1891.900
  -4991878.337 6  -4415835.928 5  24041618.554       -2620.642
  17016086.415 5  13285600.329 5  24505493.473        3786.321
  15667507.173 5  12249264.292 5  24841644.315        2941.325
 92 11 19 21 23  0.0020000  0  7 25 11 12 21 15 28 23                0.002828760
 -17537674.348 7 -10021234.807 5  23221601.369       -2311.564
  -3598582.413 8  -3003605.960 6  22226261.490        1470.966
   4971446.761 6   3764946.922 5  25181773.447        2781.240
   7240329.884 8   5657627.133 6  22010227.188        1899.333
  -5070417.470 6  -4477035.102 5  24026673.049       -2615.101
  17129698.417 5  13374128.968 5  24527112.304        3787.957
  15755789.342 5  12318055.450 5  24858444.345        2944.197
 92 11 19 21 23 30.0020000  0  7 25 11 12 21 15 28 23                0.002841820
 -17606917.010 7 -10075189.959 5  23208424.852       -2304.446
  -3554131.183 7  -2968968.678 6  22234719.546        1492.567
   5055145.989 6   3830166.985 5  25197701.023        2798.662
   7297424.821 7   5702116.674 6  22021091.967        1907.037
  -5148789.806 6  -4538104.276 5  24011758.167       -2609.551
  17243355.406 5  13462692.649 5  24548740.421        3789.165
  15844164.709 5  12386919.203 5  24875261.926        2947.575
 92 11 19 21 24  0.0020000  0  7 25 11 12 21 15 28 23                0.002854860
 -17675935.666 7 -10128970.570 5  23195290.516       -2296.594
  -3509026.312 7  -2933822.063 6  22243302.732        1514.564
   5139369.202 6   3895795.385 5  25213728.575        2816.307
   7354751.413 8   5746786.686 6  22032000.744        1914.635
  -5226982.295 6  -4599033.364 5  23996879.365       -2603.050
  17357043.564 6  13551280.562 5  24570374.892        3790.234
  15932648.986 5  12455867.839 5  24892101.111        2951.398
 92 11 19 21 24 30.0020000  0  7 25 11 12 21 15 28 23                0.002867900
 -17744713.391 7 -10182563.451 5  23182201.675       -2288.290
  -3463256.930 7  -2898157.655 6  22252012.482        1536.858
   5224126.425 6   3961839.939 5  25229857.379        2834.230
   7412301.983 7   5791631.256 6  22042952.383        1922.153
  -5304971.979 6  -4659804.393 5  23982038.652       -2596.027
  17470775.019 5  13639902.299 5  24592018.078        3791.932
  16021248.158 5  12524905.988 5  24908961.346        2955.104
 92 11 19 21 25  0.0020000  0  7 25 11 12 21 15 28 23                0.002880940
 -17813226.513 7 -10235950.138 5  23169164.321       -2279.025
  -3416816.498 7  -2861970.362 6  22260849.794        1559.362
   5309423.305 6   4028304.983 5  25246088.528        2852.320
   7470076.245 7   5836650.124 6  22053946.582        1929.609
  -5382743.224 6  -4720405.207 5  23967238.586       -2588.666
  17584555.891 5  13728562.511 5  24613670.671        3793.481
  16109943.025 5  12594018.717 5  24925839.020        2958.115
 92 11 19 21 25 30.0020000  0  7 25 11 12 21 15 28 23                0.002893970
 -17881456.065 7 -10289115.876 6  23156180.968       -2269.471
  -3369694.271 7  -2825251.784 6  22269816.937        1582.205
   5395269.798 6   4095198.251 5  25262424.891        2870.705
   7528075.173 7   5881844.049 6  22064983.470        1936.975
  -5460296.703 6  -4780836.396 5  23952480.320       -2581.466
  17698388.610 5  13817263.105 5  24635331.923        3795.512
  16198741.087 5  12663211.821 5  24942737.499        2961.792
 92 11 19 21 26  0.0020000  0  7 25 11 12 21 15 28 23                0.002907020
 -17949402.613 7 -10342061.115 6  23143251.022       -2260.237
  -3321886.469 7  -2787999.014 6  22278914.638        1604.897
   5481668.587 6   4162521.905 5  25278865.944        2888.967
   7586296.147 7   5927210.992 6  22076062.891        1944.348
  -5537632.003 6  -4841097.555 5  23937763.501       -2574.374
  17812290.345 5  13906017.484 5  24657006.968        3797.822
  16287646.475 5  12732488.607 5  24959656.883        2965.074
 92 11 19 21 26 30.0020000  0  7 25 11 12 21 15 28 23                0.002920080
 -18017072.255 7 -10394790.573 6  23130373.446       -2250.813
  -3273396.564 7  -2750214.735 6  22288142.160        1627.826
   5568615.592 6   4230272.652 5  25295411.993        2907.401
   7644745.933 7   5972756.236 6  22087184.899        1952.524
  -5614755.013 6  -4901193.307 5  23923087.151       -2567.068
  17926269.268 5  13994832.046 5  24678696.251        3800.595
  16376647.585 5  12801839.903 5  24976592.797        2968.311
 92 11 19 21 27  0.0020000  0  7 25 11 12 21 15 28 23                0.002933140
 -18084457.526 7 -10447298.508 5  23117550.532       -2241.648
  -3224221.677 8  -2711896.689 6  22297499.922        1650.517
   5656112.719 6   4298452.187 5  25312061.264        2925.571
   7703442.891 7   6018494.087 6  22098354.777        1960.587
  -5691647.674 6  -4961109.537 5  23908454.542       -2559.078
  18040324.703 5  14083706.196 5  24700401.029        3803.054
  16465747.104 5  12871267.948 5  24993547.612        2971.897
 92 11 19 21 27 30.0020000  0  7 25 11 12 21 15 28 23                0.002946220
 -18151574.005 7 -10499596.965 5  23104779.423       -2232.664
  -3174364.629 7  -2673047.090 6  22306987.514        1673.277
   5744156.431 6   4367057.559 5  25328815.035        2943.734
   7762389.795 7   6064426.693 6  22109572.220        1969.219
  -5768292.896 6  -5020832.965 5  23893868.950       -2550.444
  18154448.543 5  14172633.686 5  24722118.721        3805.169
  16554965.532 5  12940788.662 5  25010525.522        2975.825
 92 11 19 21 28  0.0020000  0  7 25 11 12 21 15 28 23                0.002959320
 -18218417.020 7 -10551682.374 5  23092059.511       -2223.392
  -3123828.175 7  -2633668.105 6  22316604.297        1695.768
   5832743.243 6   4436086.149 5  25345672.644        2961.776
   7821597.617 7   6110562.625 6  22120839.002        1977.761
  -5844666.491 6  -5080344.736 5  23879335.852       -2541.255
  18268627.419 5  14261603.988 5  24743847.561        3806.537
  16644291.489 5  13010393.066 5  25027523.519        2979.193
 92 11 19 21 28 30.0020000  0  7 25 11 12 21 15 28 23                0.002972410
 -18284968.648 7 -10603540.694 6  23079395.308       -2213.388
  -3072614.524 7  -2593761.408 6  22326350.259        1718.336
   5921869.848 6   4505535.407 5  25362633.314        2979.680
   7881057.469 7   6156894.940 6  22132153.709        1986.086
  -5920759.548 6  -5139637.884 5  23864855.633       -2531.809
  18382842.746 5  14350602.771 5  24765581.945        3807.769
  16733723.009 5  13080079.865 5  25044542.334        2982.899
 92 11 19 21 29  0.0020000  0  7 25 11 12 21 15 28 23                0.002985520
 -18351223.269 7 -10655167.620 6  23066787.386       -2203.464
  -3020726.389 7  -2553329.141 6  22336224.565        1740.951
   6011532.943 6   4575402.626 5  25379696.661        2997.709
   7940761.279 7   6203417.325 6  22143514.832        1994.147
  -5996568.581 6  -5198709.749 5  23850429.930       -2522.322
  18497091.796 5  14439627.777 5  24787323.026        3808.924
  16823275.770 5  13149860.980 5  25061583.395        2987.346
 92 11 19 21 29 30.0020000  0  7 25 11 12 21 15 28 23                0.002998640
 -18417171.435 7 -10706555.761 6  23054237.754       -2192.706
  -2968160.223 7  -2512368.555 6  22346226.818        1763.600
   6101735.371 6   4645690.233 5  25396862.337        3015.793
   8000714.701 8   6250134.230 6  22154924.443        2002.772
  -6072108.525 6  -5257571.925 5  23836054.982       -2513.554
  18611375.506 5  14528679.740 5  24809070.189        3810.159
  16912957.644 5  13219742.870 5  25078649.651        2991.481
 92 11 19 21 30  0.0030000  0  7 25 11 12 21 15 28 23                0.003011770
 -18482787.101 7 -10757684.821 6  23041751.207       -2181.402
  -2914910.851 7  -2470875.583 6  22356359.994        1786.229
   6192482.718 6   4716402.404 5  25414130.882        3033.723
   8060927.503 8   6297053.257 6  22166382.882        2011.246
  -6147389.809 6  -5316232.618 5  23821729.989       -2505.230
  18725707.966 5  14617769.796 5  24830826.423        3811.734
  17002766.243 5  13289723.333 5  25095740.587        2995.576
 92 11 19 21 30 30.0030000  0  7 25 11 12 21 15 28 23                0.003024900
 -18548059.059 7 -10808546.037 6  23029329.977       -2170.062
  -2860986.451 7  -2428856.627 6  22366621.471        1808.797
   6283763.447 6   4787530.148 5  25431500.818        3051.571
   8121393.548 8   6344169.599 6  22177889.166        2019.967
  -6222423.579 7  -5374700.399 5  23807451.492       -2496.971
  18840087.740 5  14706896.665 5  24852592.219        3813.576
  17092702.268 5  13359803.260 5  25112853.104        3000.076
 92 11 19 21 31  0.0030000  0  7 25 11 12 21 15 28 23                0.003038040
 -18612995.139 7 -10859145.539 6  23016973.489       -2158.903
  -2806388.981 7  -2386313.200 6  22377011.128        1831.081
   6375576.079 5   4859072.401 5  25448971.226        3069.134
   8182126.857 8   6391494.177 6  22189446.397        2028.834
  -6297212.653 7  -5432977.477 5  23793219.429       -2489.028
  18954513.003 5  14796058.949 5  24874365.486        3814.624
  17182761.376 5  13429979.044 5  25129990.460        3003.912
 92 11 19 21 31 30.0030000  0  7 25 11 12 21 15 28 23                0.003051180
 -18677587.508 7 -10909477.259 6  23004681.953       -2147.100
  -2751121.366 8  -2343247.574 6  22387528.137        1853.383
   6467917.168 5   4931026.431 5  25466543.206        3086.687
   8243134.175 8   6439032.300 6  22201055.288        2038.213
  -6371756.729 7  -5491063.603 5  23779034.289       -2480.539
  19068969.011 5  14885245.251 5  24896145.995        3815.665
  17272929.818 5  13500239.956 4  25147149.053        3007.432
 92 11 19 21 32  0.0030000  0  7 25 11 12 21 15 28 23                0.003064320
 -18741835.437 7 -10959540.556 6  22992456.024       -2136.153
  -2695188.238 7  -2299663.387 6  22398172.080        1875.451
   6560781.349 5   5003388.015 5  25484214.582        3104.009
   8304412.441 8   6486781.549 6  22212716.484        2046.895
  -6446046.900 7  -5548951.922 5  23764897.423       -2472.203
  19183447.223 5  14974448.844 5  24917931.704        3816.101
  17363213.850 5  13570591.073 4  25164329.681        3011.392
 92 11 19 21 32 30.0030000  0  7 25 11 12 21 15 28 23                0.003077450
 -18805761.644 7 -11009353.139 6  22980291.435       -2125.571
  -2638595.105 7  -2255564.911 6  22408941.892        1897.455
   6654162.391 5   5076152.440 5  25501985.002        3121.275
   8365941.377 8   6534726.130 6  22224425.432        2054.988
  -6520082.770 7  -5606642.120 5  23750808.706       -2463.564
  19297937.582 5  15063661.808 5  24939718.574        3816.519
  17453618.474 5  13641036.043 4  25181533.956        3015.509
 92 11 19 21 33  0.0030000  0  7 25 11 12 21 15 28 23                0.003090600
 -18869377.595 7 -11058924.015 6  22968185.826       -2115.438
  -2581344.308 8  -2210953.964 6  22419836.480        1919.286
   6748057.298 5   5149317.175 5  25519852.590        3138.258
   8427709.735 8   6582857.241 6  22236179.012        2062.789
  -6593861.553 7  -5664132.010 5  23736768.797       -2455.045
  19412436.064 5  15152881.242 5  24961508.060        3816.785
  17544147.134 5  13711577.712 4  25198761.300        3019.869
 92 11 19 21 33 30.0030000  0  7 25 11 12 21 15 28 23                0.003103750
 -18932690.214 7 -11108258.476 6  22956137.589       -2105.319
  -2523436.720 8  -2165831.201 6  22430855.940        1941.316
   6842464.350 5   5222881.039 5  25537817.288        3155.433
   8489711.465 8   6631170.225 6  22247977.345        2070.655
  -6667381.660 7  -5721420.384 5  23722778.284       -2446.204
  19526951.455 5  15242113.754 5  24983299.825        3817.776
  17634813.207 5  13782226.460 4  25216014.507        3024.705
 92 11 19 21 34  0.0030000  0  7 25 11 12 21 15 28 23                0.003116940
 -18995708.553 7 -11157363.618 6  22944145.527       -2095.715
  -2464869.373 8  -2120194.366 6  22442001.045        1963.278
   6937386.053 5   5296845.946 5  25555880.116        3172.529
   8551946.460 7   6679664.995 6  22259820.387        2078.438
  -6740635.845 7  -5778501.444 5  23708838.293       -2437.296
  19641505.221 5  15331376.192 5  25005098.811        3819.243
  17725633.273 5  13852995.159 4  25233296.896        3029.759
 92 11 19 21 34 30.0030000  0  7 25 11 12 21 15 28 23                0.003130160
 -19058429.486 7 -11206237.063 6  22932209.831       -2085.534
  -2405640.498 7  -2074042.031 6  22453271.724        1985.341
   7032823.552 5   5371212.670 5  25574042.051        3189.730
   8614425.706 8   6728350.031 6  22271710.194        2087.001
  -6813609.397 6  -5835363.803 5  23694951.986       -2427.654
  19756105.745 5  15420675.106 5  25026907.141        3820.758
  17816598.649 5  13923877.200 4  25250605.318        3034.515
 92 11 19 21 35  0.0030000  0  7 25 11 12 21 15 28 23                0.003143400
 -19120838.510 7 -11254867.443 6  22920333.524       -2074.877
  -2345749.868 7  -2027374.083 5  22464668.035        2007.451
   7128776.390 5   5445981.058 5  25592300.977        3207.010
   8677176.316 8   6777246.549 6  22283651.698        2096.386
  -6886292.010 6  -5891999.502 5  23681120.491       -2417.728
  19870749.541 5  15510007.634 5  25048722.492        3822.017
  17907697.194 5  13994862.942 4  25267941.608        3038.790
 92 11 19 21 35 30.0030000  0  7 25 11 12 21 15 28 23                0.003156660
 -19182916.124 8 -11303239.547 6  22908520.852       -2063.365
  -2285194.380 7  -1980188.027 5  22476191.127        2029.676
   7225247.032 5   5521152.892 5  25610658.725        3224.311
   8740207.253 8   6826361.504 6  22295645.757        2105.741
  -6958669.008 6  -5948397.072 5  23667347.864       -2407.500
  19985429.562 5  15599368.399 5  25070544.974        3823.034
  17998921.438 5  14065946.544 4  25285302.169        3042.741
 92 11 19 21 36  0.0030000  0  7 25 11 12 21 15 28 23                0.003169940
 -19244640.304 7 -11351336.248 6  22896774.573       -2051.372
  -2223975.143 8  -1932484.772 5  22487841.032        2051.637
   7322233.997 5   5596727.004 5  25629115.350        3241.326
   8803512.820 8   6875690.463 6  22307692.553        2114.583
  -7030740.219 6  -6004556.422 5  23653632.534       -2397.256
  20100126.387 5  15688742.342 5  25092371.433        3823.166
  18090258.213 5  14137118.005 4  25302682.666        3046.287
 92 11 19 21 36 30.0030000  0  7 25 11 12 21 15 28 23                0.003183210
 -19305998.117 7 -11399147.480 6  22885098.846       -2039.061
  -2162096.757 8  -1884267.919 5  22499616.599        2073.605
   7419731.822 5   5672699.299 5  25647668.874        3258.300
   8867078.935 8   6925222.442 6  22319788.783        2123.083
  -7102503.456 6  -6060475.733 5  23639975.298       -2387.128
  20214811.900 5  15778107.409 5  25114195.908        3822.425
  18181694.931 5  14208367.246 4  25320083.085        3049.742
 92 11 19 21 37  0.0030000  0  7 25 11 12 21 15 28 23                0.003196490
 -19366990.514 7 -11446673.962 6  22873492.400       -2026.975
  -2099562.646 7  -1835540.087 5  22511516.882        2095.389
   7517736.826 5   5749066.652 5  25666318.837        3275.192
   8930888.693 7   6974944.274 6  22331931.305        2130.748
  -7173974.520 6  -6116167.354 5  23626374.970       -2377.645
  20329469.031 5  15867450.302 5  25136014.104        3821.344
  18273244.824 5  14279704.693 4  25337506.210        3053.716
 92 11 19 21 37 30.0030000  0  7 25 11 12 21 15 28 23                0.003209770
 -19427619.040 7 -11493916.911 6  22861955.357       -2014.935
  -2036377.025 7  -1786304.625 5  22523540.586        2116.991
   7616243.887 6   5825825.355 5  25685064.706        3291.823
   8994925.154 7   7024842.749 6  22344116.890        2138.366
  -7245164.456 6  -6171639.923 5  23612828.468       -2368.524
  20444097.486 5  15956770.883 5  25157827.958        3820.442
  18364924.145 5  14351142.952 4  25354953.308        3058.342
 92 11 19 21 38  0.0030000  0  7 25 11 12 21 15 28 23                0.003223060
 -19487890.165 7 -11540881.324 6  22850486.419       -2003.087
  -1972542.254 7  -1736563.304 5  22535687.839        2138.688
   7715250.345 6   5902973.029 5  25703904.382        3308.513
   9059200.648 7   7074927.518 6  22356348.013        2146.737
  -7316078.143 6  -6226897.209 5  23599334.921       -2358.968
  20558704.106 5  16046074.462 5  25179636.258        3820.089
  18456746.036 5  14422692.424 4  25372427.070        3063.291
 92 11 19 21 38 30.0030000  0  7 25 11 12 21 15 28 23                0.003236360
 -19547813.775 7 -11587574.957 6  22839082.743       -1991.681
  -1908060.663 7  -1686317.969 5  22547958.155        2160.114
   7814753.304 6   5980507.792 5  25722838.540        3324.946
   9123741.442 7   7125219.005 6  22368629.621        2156.059
  -7386707.710 6  -6281933.151 5  23585894.883       -2349.616
  20673299.446 5  16135369.270 5  25201443.134        3819.744
  18548719.827 5  14494360.172 4  25389928.890        3068.170
 92 11 19 21 39  0.0030000  0  7 25 11 12 21 15 28 23                0.003249670
 -19607390.524 7 -11633998.331 6  22827745.080       -1979.905
  -1842933.362 7  -1635569.505 5  22560350.844        2181.746
   7914751.205 6   6058428.218 5  25741867.358        3341.545
   9188566.802 7   7175732.213 6  22380965.140        2165.767
  -7457043.253 6  -6336739.993 5  23572510.349       -2339.164
  20787898.492 5  16224666.954 5  25223251.239        3820.251
  18640835.520 5  14566138.455 4  25407457.767        3072.630
 92 11 19 21 39 30.0030000  0  7 25 11 12 21 15 28 23                0.003263010
 -19666612.975 8 -11680145.633 6  22816475.652       -1967.797
  -1777159.961 7  -1584317.584 5  22572867.559        2203.515
   8015243.925 6   6136734.063 5  25760990.307        3358.207
   9253691.724 7   7226478.851 6  22393358.150        2176.164
  -7527056.298 6  -6391295.537 5  23559187.634       -2327.956
  20902511.688 5  16313975.603 5  25245062.539        3820.847
  18733079.948 5  14638017.181 4  25425011.132        3077.098
 92 11 19 21 40  0.0030000  0  7 25 11 12 21 15 28 23                0.003276370
 -19725462.534 7 -11726002.340 6  22805277.086       -1954.654
  -1710728.547 7  -1532552.910 5  22585508.899        2225.981
   8116242.820 6   6215434.529 5  25780210.405        3375.596
   9319132.086 7   7277471.283 6  22405811.239        2187.108
  -7596716.736 6  -6445576.269 5  23545931.148       -2315.331
  21017152.490 5  16403305.865 5  25266877.720        3822.507
  18825458.076 5  14709999.961 4  25442590.738        3082.076
 92 11 19 21 40 30.0030000  0  7 25 11 12 21 15 28 23                0.003289790
 -19783903.996 8 -11771541.047 6  22794156.065       -1943.485
  -1643611.672 7  -1480254.130 5  22598281.257        2246.314
   8217775.020 6   6294550.480 5  25799531.882        3390.840
   9384904.512 7   7328722.483 6  22418327.506        2195.249
  -7665981.544 6  -6499548.731 5  23532750.275       -2304.337
  21131855.362 5  16492684.452 5  25288704.976        3822.107
  18917993.604 5  14782105.545 4  25460199.183        3084.759
 92 11 19 21 41  0.0030000  0  7 25 11 12 21 15 28 23                0.003303200
 -19842018.883 8 -11816825.283 6  22783096.760       -1930.699
  -1575900.622 7  -1427492.347 5  22611165.816        2267.761
   8319748.787 5   6374010.442 5  25818936.783        3407.190
   9450887.196 7   7380137.512 6  22430884.082        2203.482
  -7734924.623 6  -6553270.513 5  23519630.828       -2292.081
  21246529.683 5  16582040.809 5  25310526.925        3822.685
  19010603.695 5  14854269.013 3  25477822.698        3089.360
 92 11 19 21 41 30.0030000  0  7 25 11 12 21 15 28 23                0.003316680
 -19899702.381 8 -11861773.390 6  22772119.950       -1916.573
  -1507508.421 7  -1374199.793 5  22624181.345        2290.016
   8422250.640 5   6453881.959 5  25838441.669        3424.299
   9517154.510 7   7431774.327 6  22443493.864        2212.541
  -7803473.429 6  -6606685.077 5  23506585.788       -2279.635
  21361256.298 5  16671437.820 5  25332359.203        3823.820
  19103402.685 5  14926579.867 3  25495481.576        3095.630
 92 11 19 21 42  0.0030000  0  7 25 11 12 21 15 28 23                0.003330160
 -19957035.350 8 -11906448.378 6  22761210.253       -1904.930
  -1438521.844 7  -1320444.093 5  22637308.907        2309.675
   8525193.331 5   6534097.014 5  25858031.096        3438.939
   9583622.934 7   7483567.848 6  22456142.581        2219.205
  -7871720.877 7  -6659864.837 5  23493598.780       -2269.582
  21475934.823 5  16760797.454 5  25354182.114        3821.858
  19196319.488 5  14998982.832 2  25513163.430        3099.363
 92 11 19 21 42 30.0030000  0  7 25 11 12 21 15 28 23                0.003343650
 -20013994.761 7 -11950832.262 6  22750371.195       -1892.106
  -1368923.124 7  -1266211.393 5  22650553.029        2330.423
   8628594.139 5   6614668.946 5  25877707.786        3454.409
   9650310.169 7   7535531.891 6  22468832.791        2226.799
  -7939639.896 7  -6712788.681 5  23480673.899       -2258.288
  21590563.328 5  16850118.084 5  25375995.944        3820.020
  19289364.378 5  15071485.318 3  25530869.585        3103.626
 92 11 19 21 43  0.0030000  0  7 25 11 12 21 15 28 23                0.003357150
 -20070558.598 8 -11994907.889 6  22739606.946       -1878.683
  -1298697.198 7  -1211489.964 5  22663916.667        2351.364
   8732467.727 5   6695609.345 5  25897474.223        3470.333
   9717241.508 7   7587686.117 6  22481569.405        2235.447
  -8007221.237 7  -6765449.371 5  23467813.174       -2247.266
  21705132.434 5  16939392.422 5  25397797.840        3817.920
  19382549.190 5  15144097.069 3  25548602.130        3108.537
 92 11 19 21 43 30.0030000  0  7 25 11 12 21 15 28 23                0.003370650
 -20126718.005 8 -12038668.379 6  22728920.166       -1865.168
  -1227839.852 7  -1156276.494 5  22677400.342        2372.597
   8836818.070 5   6776921.281 5  25917331.011        3486.368
   9784448.519 7   7640055.163 6  22494358.468        2245.244
  -8074467.503 7  -6817848.957 5  23455017.081       -2235.459
  21819637.045 5  17028616.473 5  25419587.615        3815.763
  19475875.826 5  15216819.229 3  25566360.953        3113.215
 92 11 19 21 44  0.0030000  0  7 25 11 12 21 15 28 23                0.003384150
 -20182474.899 8 -12082115.284 6  22718309.961       -1851.580
  -1156344.097 7  -1100565.588 5  22691005.933        2393.877
   8941651.724 5   6858609.713 5  25937280.522        3502.415
   9851953.065 7   7692656.058 6  22507204.316        2255.105
  -8141344.925 7  -6869961.132 5  23442290.439       -2222.922
  21934080.977 5  17117793.229 5  25441365.970        3813.947
  19569341.598 5  15289649.797 3  25584147.100        3117.708
 92 11 19 21 44 30.0030000  0  7 25 11 12 21 15 28 23                0.003397660
 -20237810.519 8 -12125233.893 6  22707779.813       -1837.308
  -1084209.222 7  -1044356.679 5  22704732.641        2415.192
   9046969.129 5   6940675.219 5  25957322.329        3518.658
   9919756.538 7   7745489.867 6  22520107.064        2265.179
  -8207847.207 7  -6921781.031 5  23429635.611       -2210.695
  22048478.067 5  17206933.508 5  25463134.570        3812.655
  19662943.082 5  15362586.170 3  25601958.485        3122.499
 92 11 19 21 45  0.0030000  0  5 25 11 21 15 28                      0.003411110
 -20292715.781 8 -12168017.159 6  22697331.672       -1822.982
  -1011433.380 7   -987648.293 5  22718581.724        2436.456
   9987865.400 7   7798561.639 6  22533067.702        2275.282
  -8273985.965 7  -6973317.664 5  23417049.674       -2198.654
  22162850.210 5  17296054.379 5  25484898.794        3812.100
 92 11 19 21 45 30.0030000  0  5 25 11 21 15 28                      0.003424650
 -20347191.723 8 -12210465.890 6  22686965.241       -1808.749
   -938024.942 7   -930446.988 5  22732550.972        2457.379
  10056271.039 7   7851864.677 6  22546084.860        2285.025
  -8339760.514 7  -7024570.464 5  23404533.191       -2186.475
  22277206.584 5  17385162.948 5  25506660.736        3811.596
 92 11 19 21 46  0.0030000  0  5 25 11 21 15 28                      0.003438230
 -20401244.041 8 -12252584.537 6  22676679.512       -1794.513
   -863991.482 7   -872758.633 5  22746639.061        2478.202
  10124962.700 7   7905390.555 6  22559156.949        2294.364
  -8405175.279 7  -7075542.911 5  23392085.363       -2174.613
  22391548.760 5  17474260.416 5  25528419.122        3811.263
 92 11 19 21 46 30.0030000  0  5 25 11 21 15 28                      0.003451830
 -20454870.318 8 -12294371.216 6  22666474.657       -1780.626
   -789337.826 7   -814587.018 5  22760845.455        2498.750
  10193934.902 7   7959135.074 6  22572281.954        2303.745
  -8470238.209 7  -7126241.195 5  23379704.277       -2162.983
  22505884.534 5  17563352.965 5  25550176.351        3811.105
